GFSNGP_850_dewp_108.txt.gz
Dewpoint
-4 -5 -6 -7 -7 -8 -7 -4 3 0 -1 -5 -3 1 4 4 4 3 3 2 2 6 8 9 9 9 8 6 1 3 4 5 6 8 9 8 8 8 8 8 7 7 7 7
-3 -4 -5 -4 -6 -6 -8 -8 -8 -6 -4 -7 -1 -2 1 0 3 5 7 8 6 5 7 8 9 9 9 9 6 3 5 6 7 7 8 8 8 8 7 8 7 7 7 7
-2 -3 -2 -1 -4 -6 -7 -8 -8 -6 -5 4 4 2 5 6 7 7 7 6 6 7 6 4 5 4 9 10 9 7 5 7 7 7 8 8 8 8 8 7 7 7 8 8
0 -1 -0 -7 -5 -5 -6 -7 -3 2 4 4 3 6 6 6 6 6 6 5 5 5 6 6 3 6 9 9 10 9 8 7 8 8 8 9 9 9 8 8 8 8 9 9
-1 0 -3 -5 -4 1 1 -1 5 5 4 3 3 5 4 6 5 5 5 5 5 5 5 6 7 8 5 8 9 10 10 9 8 8 9 9 9 9 9 8 8 8 9 9
1 1 2 -1 -1 -3 -1 4 4 4 4 3 2 5 3 5 5 5 5 5 5 5 4 6 9 10 10 8 4 9 9 9 9 9 9 9 9 9 9 9 8 8 8 7
-0 -1 1 -2 -5 -5 4 4 3 2 2 2 2 2 3 6 5 5 5 4 5 5 5 4 7 9 10 9 8 10 9 9 9 9 9 9 9 9 9 8 8 7 6 5
0 -0 1 0 2 1 2 1 2 1 0 -0 3 6 6 5 4 4 4 4 4 4 5 4 6 8 9 9 9 9 9 9 9 9 10 10 9 9 8 7 6 4 4 2
-1 -1 -1 2 2 2 1 -1 -1 -2 -2 2 3 5 5 3 3 3 3 3 4 4 4 4 4 6 7 7 7 7 8 8 8 8 8 8 8 6 5 4 4 2 -0 -3
2 2 2 3 1 1 -0 -2 -3 -2 2 1 2 3 3 3 3 2 2 2 1 3 3 3 3 4 4 5 5 5 5 5 4 4 3 2 2 -1 -1 -2 -2 -4 -5 -6
3 2 2 1 1 -1 -2 -2 -2 1 1 1 2 1 2 1 1 0 0 0 0 1 1 0 1 2 3 2 2 3 3 2 2 1 0 -1 -2 -3 -4 -5 -4 -5 -5 -6
2 2 2 1 -1 -1 -1 -0 0 1 1 -0 0 0 2 1 -0 -1 -1 -1 -1 -1 -1 -2 -1 -1 -1 -0 -0 0 -1 -2 -3 -3 -4 -4 -4 -5 -4 -5 -5 -5 -5 -5
-3 -4 -3 -2 0 1 1 2 1 -1 -1 0 1 1 1 -1 -1 -2 -2 -2 -2 -2 -2 -3 -3 -3 -3 -2 -2 -2 -4 -5 -6 -5 -6 -6 -6 -7 -10 -10 -9 -9 -11 -20
-2 -3 -0 1 1 1 1 -0 -1 -0 -0 -0 -0 0 -1 -2 -3 -3 -4 -4 -3 -3 -3 -3 -3 -3 -3 -3 -3 -3 -5 -5 -4 -5 -5 -5 -5 -6 -7 -8 -9 -13 -14 -14
-1 0 -0 0 2 2 2 1 0 -0 -1 -1 -0 -1 -2 -3 -4 -5 -5 -4 -4 -4 -4 -4 -5 -6 -5 -4 -3 -3 -3 -4 -4 -5 -5 -5 -6 -7 -9 -14 -24 -25 -21 -19
-1 -1 -1 -1 -1 1 1 1 1 -0 -1 -2 -1 -2 -4 -5 -5 -5 -5 -5 -4 -5 -6 -6 -6 -6 -5 -5 -5 -5 -5 -6 -6 -6 -7 -7 -7 -13 -23 -22 -19 -20 -24 -27
-2 -2 -2 -2 -1 -1 -1 0 0 -1 -2 -2 -2 -3 -5 -6 -6 -6 -6 -6 -6 -7 -7 -6 -7 -7 -6 -5 -5 -5 -6 -6 -6 -7 -9 -18 -25 -25 -24 -24 -22 -24 -25 -26
-4 -4 -3 -3 -2 -2 -1 -1 -1 -2 -3 -3 -4 -5 -6 -6 -7 -8 -8 -8 -7 -7 -7 -7 -7 -7 -6 -6 -5 -6 -6 -7 -11 -22 -24 -26 -29 -28 -25 -26 -25 -27 -26 -27
-7 -6 -5 -4 -4 -3 -3 -2 -3 -3 -3 -3 -4 -6 -7 -8 -8 -9 -9 -8 -8 -8 -9 -8 -8 -7 -7 -7 -6 -7 -11 -21 -25 -26 -30 -33 -33 -29 -27 -26 -26 -28 -29 -30
-7 -7 -7 -6 -5 -4 -4 -4 -4 -4 -5 -5 -7 -8 -9 -9 -9 -9 -9 -9 -9 -10 -10 -9 -8 -8 -9 -13 -17 -23 -23 -26 -28 -27 -26 -26 -26 -26 -26 -27 -28 -30 -31 -31
-9 -9 -8 -8 -7 -6 -6 -6 -6 -7 -8 -8 -8 -9 -10 -10 -10 -10 -9 -10 -11 -11 -10 -10 -9 -16 -23 -25 -25 -26 -26 -26 -25 -24 -25 -27 -28 -28 -28 -29 -31 -32 -32 -31
-11 -10 -10 -9 -9 -8 -9 -9 -8 -9 -10 -10 -10 -10 -11 -11 -11 -11 -11 -10 -12 -11 -11 -11 -13 -26 -29 -28 -28 -28 -29 -29 -29 -28 -29 -29 -30 -30 -31 -31 -32 -32 -31 -31
-12 -11 -11 -11 -10 -10 -11 -11 -11 -11 -11 -11 -11 -12 -11 -12 -12 -11 -12 -13 -12 -12 -12 -19 -26 -28 -28 -28 -29 -29 -28 -28 -29 -29 -30 -30 -31 -31 -31 -31 -31 -31 -31 -30
-12 -13 -12 -12 -12 -12 -12 -12 -12 -12 -12 -13 -13 -12 -12 -12 -13 -13 -13 -13 -13 -13 -23 -25 -25 -26 -26 -28 -28 -28 -28 -29 -29 -30 -30 -31 -31 -31 -30 -30 -30 -31 -30 -30
-13 -13 -13 -13 -13 -13 -13 -14 -14 -14 -13 -14 -13 -13 -13 -13 -12 -14 -14 -14 -14 -25 -27 -27 -28 -28 -29 -30 -30 -30 -30 -31 -30 -30 -30 -30 -30 -30 -30 -29 -29 -28 -28 -29
-12 -12 -14 -14 -14 -14 -14 -14 -14 -15 -14 -14 -14 -14 -14 -13 -13 -14 -14 -15 -24 -28 -30 -29 -28 -28 -29 -30 -30 -30 -30 -31 -30 -30 -30 -30 -29 -29 -28 -28 -28 -27 -27 -27
-13 -13 -14 -14 -15 -15 -15 -15 -15 -15 -15 -14 -14 -15 -15 -14 -14 -14 -16 -21 -24 -29 -29 -29 -29 -30 -31 -31 -30 -30 -30 -30 -30 -30 -29 -29 -29 -29 -29 -29 -28 -28 -28 -28

GFSNGP_850_dewp_111.txt.gz
Dewpoint
-5 -5 -6 -6 -5 -6 -6 -4 -1 -7 -4 -5 -6 -4 -2 2 3 5 6 7 8 7 9 9 10 9 10 9 9 9 7 6 8 9 9 9 9 9 9 9 9 9 9 9
-3 -4 -4 -3 -3 -4 -5 -5 -6 -7 -8 -11 -6 -3 -0 2 4 5 6 7 7 6 7 7 10 10 10 9 9 8 8 7 8 9 9 9 9 8 9 9 9 9 8 8
-4 -3 -3 -3 -6 -4 -6 -7 -7 -6 -9 -3 3 3 3 4 4 7 7 6 6 4 6 6 5 9 10 10 9 8 7 8 8 8 9 8 8 8 9 8 8 8 8 8
-0 -2 -3 -7 -7 -7 -4 -5 -3 -8 -3 4 3 6 5 5 6 5 5 5 5 5 4 6 7 5 9 9 10 9 8 8 8 9 9 8 9 8 8 8 8 8 8 8
-2 -1 -7 -8 -10 -2 3 3 2 -1 4 3 3 5 5 4 6 5 5 4 4 5 5 5 8 7 7 10 10 10 9 9 9 9 9 8 9 8 8 8 8 8 8 8
-0 -0 -3 -5 -2 -3 -1 3 4 4 4 4 3 6 4 5 5 5 4 4 4 4 4 4 7 9 9 10 10 10 6 7 9 9 9 9 9 8 8 8 8 8 7 8
-1 -2 -2 -4 -5 -2 1 4 2 3 2 2 3 3 4 5 4 3 3 4 4 4 4 4 6 9 10 10 10 10 9 8 8 10 9 9 9 8 8 8 8 8 7 7
1 -1 -1 -1 1 2 2 1 2 2 -0 0 5 5 5 4 3 3 3 3 3 4 4 4 5 6 8 9 9 9 9 9 9 10 9 9 9 9 8 8 8 7 5 4
-1 -2 -1 2 3 1 2 2 -1 -1 -2 2 3 4 3 2 2 2 2 1 2 3 3 4 4 5 5 6 7 8 8 9 9 9 9 9 8 7 6 5 4 3 1 -0
2 2 2 2 1 2 2 1 0 -0 2 4 3 3 2 2 2 1 1 0 0 1 2 2 3 3 4 4 4 6 7 6 7 7 6 4 3 4 3 1 1 -3 -3 -3
3 2 1 2 -0 -1 -1 -0 1 0 2 1 1 0 1 1 1 0 -1 -2 -1 -0 -0 0 1 2 2 3 3 4 4 3 3 2 1 0 -0 -2 -2 -4 -3 -6 -7 -6
2 -0 1 1 1 1 2 2 2 1 -0 -0 0 -1 -1 -0 -1 -2 -1 -2 -2 -2 -2 -2 -1 0 -1 -0 1 3 2 0 -1 -1 -2 -3 -4 -5 -4 -4 -4 -4 -4 -5
-2 -2 -0 2 2 2 1 -0 -1 -1 -1 -0 -1 -1 -1 -2 -3 -3 -2 -3 -3 -3 -3 -3 -3 -2 -2 -2 -1 -0 0 -2 -3 -4 -4 -5 -5 -5 -7 -7 -7 -6 -6 -6
0 0 1 2 1 1 2 2 -0 -0 -1 -1 -2 -2 -2 -3 -4 -3 -3 -4 -4 -5 -5 -5 -5 -4 -4 -4 -3 -3 -3 -5 -5 -5 -5 -6 -6 -6 -7 -7 -9 -11 -12 -22
-1 -0 -0 -0 1 1 1 -0 -0 -0 -2 -2 -2 -2 -3 -4 -4 -5 -5 -5 -5 -5 -6 -6 -6 -7 -6 -6 -5 -5 -5 -5 -5 -5 -5 -5 -6 -7 -8 -8 -9 -13 -18 -20
-2 -2 -2 -2 -2 -1 -0 0 -0 -1 -2 -3 -3 -3 -4 -5 -5 -5 -5 -5 -5 -6 -7 -7 -8 -9 -8 -7 -7 -7 -7 -7 -6 -7 -7 -7 -7 -7 -8 -9 -14 -17 -19 -24
-4 -4 -4 -4 -3 -2 -2 -1 -1 -2 -2 -3 -3 -4 -5 -5 -6 -6 -7 -6 -6 -7 -7 -8 -9 -8 -8 -7 -6 -6 -6 -6 -6 -6 -6 -6 -7 -12 -22 -25 -24 -26 -29 -30
-6 -6 -6 -6 -5 -4 -3 -3 -3 -3 -3 -4 -4 -5 -6 -7 -7 -8 -8 -8 -8 -7 -7 -8 -8 -7 -7 -6 -6 -6 -7 -7 -7 -7 -11 -21 -25 -26 -26 -28 -29 -29 -29 -28
-8 -8 -7 -6 -6 -6 -5 -4 -4 -4 -4 -4 -5 -6 -7 -8 -8 -8 -9 -8 -8 -8 -9 -8 -7 -7 -7 -7 -6 -6 -6 -12 -21 -25 -25 -26 -26 -27 -29 -29 -29 -29 -30 -31
-10 -9 -8 -7 -7 -6 -6 -5 -5 -5 -6 -6 -7 -8 -8 -9 -9 -9 -9 -8 -9 -9 -9 -9 -8 -7 -7 -7 -7 -12 -21 -26 -28 -30 -32 -29 -29 -29 -29 -29 -30 -31 -32 -33
-11 -10 -10 -9 -8 -8 -7 -7 -7 -7 -8 -8 -8 -9 -10 -10 -10 -10 -9 -9 -11 -10 -9 -9 -8 -8 -9 -16 -20 -23 -25 -28 -31 -30 -30 -30 -30 -29 -29 -30 -32 -33 -32 -32
-12 -11 -11 -10 -10 -10 -9 -9 -9 -9 -9 -10 -10 -10 -11 -11 -11 -10 -10 -10 -11 -11 -10 -10 -10 -14 -25 -26 -26 -26 -28 -29 -29 -29 -29 -30 -30 -31 -31 -32 -32 -32 -31 -30
-13 -13 -12 -12 -11 -11 -11 -11 -11 -11 -11 -11 -11 -11 -11 -12 -12 -11 -11 -12 -12 -12 -11 -11 -20 -26 -28 -27 -27 -28 -29 -29 -30 -29 -29 -30 -30 -31 -31 -31 -31 -31 -30 -30
-13 -14 -14 -13 -13 -12 -12 -12 -12 -12 -12 -12 -12 -12 -12 -12 -12 -12 -12 -13 -12 -12 -15 -26 -26 -25 -26 -27 -28 -28 -28 -28 -28 -29 -29 -30 -31 -31 -31 -31 -31 -31 -30 -30
-12 -13 -14 -14 -13 -13 -13 -14 -14 -14 -14 -14 -13 -13 -13 -13 -12 -13 -13 -13 -13 -20 -25 -25 -25 -25 -26 -26 -27 -27 -28 -28 -29 -30 -30 -30 -30 -30 -30 -29 -29 -29 -29 -29
-12 -13 -14 -14 -14 -14 -14 -14 -14 -14 -14 -14 -14 -14 -14 -14 -14 -14 -14 -14 -14 -18 -24 -27 -27 -27 -28 -28 -29 -29 -30 -30 -30 -30 -29 -29 -29 -29 -29 -28 -28 -28 -28 -27
-13 -14 -14 -15 -15 -15 -15 -15 -15 -15 -15 -15 -14 -15 -15 -15 -15 -15 -15 -19 -23 -26 -27 -26 -27 -27 -28 -29 -30 -30 -30 -30 -30 -30 -30 -30 -29 -29 -29 -29 -29 -28 -28 -28

GFSNGP_850_dewp_114.txt.gz
Dewpoint
-5 -6 -6 -6 -6 -6 -5 -4 -2 -9 -9 -11 -10 -11 -10 -10 0 4 4 2 3 6 4 6 8 9 10 10 10 8 8 9 8 8 8 8 8 8 8 8 9 9 8 8
-3 -4 -4 -3 -4 -4 -4 -5 -6 -6 -6 -10 -11 -11 -11 -3 2 4 4 2 4 5 4 6 6 8 9 10 10 9 8 9 9 8 8 8 8 8 8 8 9 9 8 8
-4 -4 -4 -5 -7 -6 -5 -5 -6 -4 -7 -9 -9 -7 3 4 5 5 5 5 6 6 5 6 6 8 9 10 10 10 9 8 8 8 8 8 8 8 9 8 8 8 8 8
-1 -2 -3 -10 -8 -9 -6 -7 -7 -7 -7 -3 -4 4 5 5 5 5 5 3 4 5 4 5 6 8 8 9 9 10 10 8 8 9 9 8 8 8 8 8 7 7 7 7
-3 -1 -6 -8 -11 -5 2 0 -1 -1 -0 -2 2 5 5 6 6 5 4 4 4 4 4 4 5 8 6 8 9 10 10 8 8 7 8 9 8 8 8 8 8 8 7 7
-1 -1 -3 -8 -6 -1 0 -1 1 2 4 3 3 5 5 5 5 3 3 3 3 4 4 4 4 6 8 7 8 10 10 9 8 8 8 8 8 8 8 8 7 7 7 7
1 1 -3 -6 -7 -4 0 -0 1 2 3 2 3 3 4 4 3 3 3 3 2 2 2 3 4 6 8 9 9 10 10 10 9 9 9 9 8 8 8 7 8 7 7 7
1 0 -2 1 1 2 3 3 3 3 2 1 3 4 4 3 2 3 2 2 2 2 2 3 3 4 6 8 8 9 9 9 9 9 9 9 9 8 8 8 7 7 5 4
1 -2 0 1 2 2 -0 2 2 0 -1 3 4 3 2 1 1 1 0 -0 1 1 1 2 2 3 4 6 5 8 9 9 9 9 9 9 8 7 7 6 6 5 3 2
2 2 1 1 1 1 2 1 2 2 2 3 3 2 1 0 -0 0 -0 -0 -0 -0 0 0 0 1 3 3 4 5 6 7 7 6 8 7 6 5 4 3 3 1 2 -1
2 2 1 2 2 2 2 2 2 2 1 1 0 -0 -0 -0 -1 -2 -2 -1 -1 -1 -2 -2 -1 -1 -0 1 1 3 3 2 3 3 3 4 2 1 1 -0 -0 -2 -3 -4
2 1 1 2 2 2 1 0 0 -0 -1 -0 -1 -0 -1 -1 -2 -3 -3 -2 -2 -3 -3 -3 -3 -2 -2 -1 -0 0 1 0 -1 -0 -0 -1 -2 -4 -4 -3 -4 -4 -4 -4
-0 0 2 0 0 1 1 0 -1 0 -1 -2 -1 -1 -1 -2 -3 -3 -3 -3 -4 -4 -4 -4 -4 -4 -4 -3 -2 -1 -2 -2 -3 -3 -3 -4 -4 -5 -6 -6 -5 -5 -6 -5
-1 -1 -1 -1 0 0 -0 -1 -1 -2 -2 -2 -2 -2 -3 -3 -4 -4 -4 -5 -5 -5 -5 -5 -5 -5 -6 -5 -4 -3 -3 -5 -5 -5 -5 -5 -5 -6 -6 -7 -8 -10 -9 -9
-4 -3 -3 -2 -2 -1 -1 -1 -1 -2 -2 -3 -3 -3 -4 -4 -5 -5 -5 -5 -6 -6 -7 -7 -7 -7 -7 -7 -6 -6 -6 -6 -5 -6 -6 -6 -6 -7 -7 -8 -9 -10 -11 -11
-5 -4 -4 -4 -4 -3 -2 -2 -2 -3 -3 -3 -4 -4 -4 -5 -6 -6 -7 -7 -6 -7 -8 -8 -8 -8 -8 -8 -7 -7 -7 -7 -7 -7 -8 -7 -8 -7 -7 -7 -8 -9 -14 -25
-5 -5 -6 -6 -6 -5 -5 -4 -4 -3 -4 -4 -5 -5 -6 -6 -7 -7 -7 -8 -7 -8 -8 -8 -9 -8 -8 -8 -7 -7 -7 -7 -7 -7 -7 -7 -7 -7 -7 -8 -14 -26 -29 -29
-7 -7 -8 -8 -7 -6 -6 -6 -5 -5 -5 -5 -6 -6 -7 -7 -7 -8 -8 -8 -8 -8 -8 -8 -7 -7 -7 -7 -7 -7 -7 -7 -7 -7 -7 -7 -8 -10 -15 -23 -26 -30 -31 -31
-10 -9 -9 -9 -8 -7 -7 -6 -6 -6 -6 -7 -7 -7 -8 -8 -9 -9 -9 -8 -8 -8 -9 -9 -8 -7 -7 -7 -7 -7 -7 -7 -7 -8 -9 -13 -22 -25 -27 -29 -30 -31 -32 -32
-11 -10 -10 -9 -9 -8 -8 -7 -7 -7 -7 -8 -8 -9 -9 -9 -10 -10 -9 -9 -9 -9 -9 -9 -8 -8 -8 -7 -7 -7 -7 -8 -12 -20 -24 -25 -26 -28 -29 -30 -31 -32 -32 -33
-12 -11 -11 -10 -10 -10 -9 -9 -9 -8 -9 -9 -10 -10 -10 -10 -10 -10 -10 -9 -10 -10 -10 -9 -9 -8 -8 -9 -14 -20 -23 -25 -27 -28 -27 -28 -29 -29 -30 -30 -32 -32 -33 -32
-13 -13 -12 -12 -11 -11 -11 -10 -10 -10 -10 -10 -10 -11 -11 -11 -11 -11 -11 -10 -11 -11 -10 -10 -9 -12 -20 -21 -22 -26 -30 -31 -30 -29 -29 -29 -29 -30 -30 -31 -32 -32 -31 -31
-13 -14 -14 -14 -13 -12 -12 -12 -12 -11 -11 -12 -12 -12 -11 -11 -11 -11 -11 -12 -12 -12 -11 -10 -15 -23 -24 -24 -25 -26 -27 -28 -28 -28 -28 -29 -30 -31 -32 -32 -31 -31 -31 -31
-12 -13 -13 -14 -14 -13 -13 -13 -13 -13 -13 -13 -13 -13 -12 -12 -12 -12 -12 -13 -12 -12 -13 -20 -25 -25 -25 -26 -27 -28 -28 -28 -29 -29 -30 -31 -31 -32 -32 -32 -32 -32 -31 -31
-12 -13 -13 -14 -14 -14 -14 -14 -14 -14 -14 -14 -14 -14 -13 -13 -12 -13 -13 -13 -13 -15 -25 -24 -24 -25 -26 -27 -27 -28 -29 -29 -30 -31 -32 -32 -32 -32 -31 -31 -31 -31 -30 -30
-13 -13 -14 -15 -15 -15 -15 -15 -15 -15 -14 -14 -14 -14 -14 -14 -14 -14 -14 -14 -19 -19 -23 -24 -16 -17 -26 -27 -28 -29 -30 -31 -31 -31 -31 -31 -31 -30 -30 -30 -29 -29 -29 -28
-13 -14 -14 -14 -15 -15 -15 -15 -15 -15 -15 -15 -15 -15 -15 -15 -15 -15 -15 -15 -16 -22 -22 -22 -27 -27 -28 -29 -30 -30 -30 -30 -30 -30 -30 -30 -30 -30 -30 -29 -29 -29 -29 -29

GFSNGP_850_dewp_117.txt.gz
Dewpoint
-8 -7 -6 -6 -7 -7 -7 -8 -7 -10 -11 -13 -13 -13 -13 -11 -10 -9 2 4 4 5 2 3 5 6 8 9 9 9 10 9 8 8 8 8 8 8 8 8 8 8 8 9
-4 -6 -7 -6 -6 -5 -6 -6 -6 -7 -7 -9 -11 -11 -10 -9 -7 1 4 6 6 6 3 3 5 5 7 8 9 9 10 9 8 8 8 8 8 8 8 8 8 9 8 8
-7 -8 -6 -5 -7 -7 -7 -8 -7 -8 -10 -12 -9 -10 -9 -5 1 5 6 5 5 4 4 4 4 5 6 8 8 9 9 9 8 8 8 8 8 8 8 8 8 8 8 8
-4 -5 -4 -10 -9 -9 -8 -8 -8 -8 -8 -7 -7 -7 -5 4 5 6 5 4 4 4 4 4 4 5 6 7 8 8 9 9 9 8 8 8 8 8 8 8 8 8 8 8
-2 -4 -8 -9 -11 -12 -9 -8 -3 -1 0 1 2 -1 2 5 5 4 3 3 3 3 3 4 4 4 5 7 8 8 9 9 9 8 8 8 8 8 8 8 8 7 7 7
-2 -2 -2 -9 -3 -4 -2 -5 1 1 2 3 3 3 1 5 4 3 3 2 2 2 2 3 3 4 6 7 6 9 9 9 9 8 8 8 8 8 8 8 8 7 7 7
0 1 -1 -6 -2 -3 -6 -1 2 2 1 3 4 4 3 3 3 2 1 1 1 1 2 2 3 4 5 6 6 8 9 9 9 8 8 8 8 8 8 7 8 7 7 7
1 1 0 1 -1 0 2 2 2 3 2 2 4 3 3 1 1 1 0 -0 -0 -0 1 2 3 3 3 4 4 6 8 9 8 8 8 8 8 8 8 8 7 7 7 6
1 -2 -1 0 1 2 3 1 2 3 3 4 3 2 1 -0 0 -0 -1 -1 -1 -1 -1 1 1 2 2 2 4 4 6 7 8 8 8 8 8 8 7 7 7 6 5 5
2 2 2 1 2 2 2 2 2 2 2 1 0 -1 -1 -0 -1 -2 -2 -2 -2 -2 -2 -1 -0 0 0 -0 1 3 6 7 6 7 8 6 6 5 4 5 4 3 3 2
1 1 0 1 0 1 0 0 0 -0 -1 -1 -2 -2 -1 -1 -2 -3 -3 -3 -3 -3 -3 -3 -2 -1 -1 -0 -1 -0 1 1 2 4 3 4 4 3 2 1 3 1 0 -2
1 -1 -1 -1 -1 -1 0 0 -0 -2 -2 -2 -2 -2 -2 -2 -3 -3 -4 -4 -4 -4 -4 -4 -3 -3 -2 -2 -2 -1 -1 -0 -0 -0 0 1 0 -1 -2 -2 -2 -2 -2 -3
-2 -2 -1 -1 -1 -1 -1 -0 -0 -1 -2 -2 -3 -3 -3 -3 -4 -4 -4 -5 -5 -5 -5 -5 -5 -4 -4 -3 -3 -2 -1 -2 -2 -1 -4 -5 -3 -3 -4 -5 -4 -4 -4 -5
-4 -3 -3 -3 -3 -2 -2 -2 -1 -2 -2 -3 -3 -3 -4 -5 -5 -5 -5 -6 -6 -6 -7 -6 -6 -6 -6 -5 -5 -4 -4 -4 -3 -4 -4 -5 -4 -5 -7 -7 -8 -9 -8 -7
-5 -4 -5 -4 -4 -4 -4 -3 -3 -3 -3 -3 -3 -4 -4 -5 -5 -6 -6 -7 -7 -7 -8 -8 -7 -8 -7 -6 -6 -6 -6 -6 -6 -6 -6 -6 -7 -8 -8 -8 -9 -10 -10 -10
-6 -5 -6 -6 -5 -5 -5 -5 -5 -4 -4 -4 -4 -5 -5 -6 -6 -7 -7 -7 -7 -8 -9 -8 -8 -9 -8 -8 -7 -7 -7 -7 -7 -7 -8 -8 -8 -8 -8 -9 -9 -9 -9 -9
-8 -8 -7 -7 -7 -7 -6 -6 -6 -6 -5 -5 -5 -6 -6 -6 -7 -7 -8 -8 -8 -8 -9 -9 -9 -9 -9 -8 -8 -8 -8 -8 -8 -8 -8 -8 -8 -8 -8 -8 -9 -9 -18 -25
-10 -9 -9 -9 -9 -8 -7 -7 -6 -6 -6 -6 -6 -7 -7 -7 -8 -8 -9 -9 -8 -8 -9 -9 -9 -9 -8 -8 -8 -8 -8 -8 -8 -8 -8 -8 -8 -8 -8 -9 -17 -28 -30 -30
-11 -11 -10 -10 -9 -8 -8 -8 -8 -7 -7 -7 -7 -8 -8 -8 -9 -9 -9 -9 -9 -9 -9 -9 -9 -8 -8 -8 -8 -7 -7 -7 -7 -7 -7 -8 -8 -9 -18 -27 -29 -31 -31 -30
-12 -12 -11 -11 -10 -10 -9 -9 -9 -8 -8 -8 -9 -9 -9 -10 -10 -9 -10 -9 -9 -9 -10 -9 -9 -8 -8 -8 -7 -7 -7 -7 -7 -8 -8 -14 -21 -26 -29 -31 -32 -32 -32 -32
-13 -13 -13 -12 -12 -11 -11 -10 -10 -10 -10 -10 -10 -10 -10 -10 -10 -10 -10 -9 -10 -10 -10 -9 -9 -8 -8 -8 -8 -8 -9 -10 -15 -22 -26 -27 -29 -30 -31 -31 -32 -33 -34 -33
-13 -14 -14 -14 -14 -13 -12 -11 -11 -11 -11 -11 -11 -11 -11 -11 -11 -11 -11 -10 -11 -11 -10 -9 -9 -11 -15 -19 -21 -22 -23 -25 -26 -27 -28 -30 -31 -31 -32 -33 -33 -33 -32 -31
-12 -13 -14 -14 -14 -14 -13 -13 -12 -12 -12 -12 -12 -12 -12 -11 -12 -11 -11 -12 -11 -11 -11 -10 -12 -14 -22 -24 -28 -29 -29 -28 -29 -29 -29 -30 -31 -32 -33 -33 -32 -32 -32 -31
-12 -13 -14 -15 -14 -14 -14 -14 -13 -13 -13 -13 -13 -13 -13 -12 -12 -12 -12 -13 -12 -12 -12 -17 -22 -24 -25 -26 -27 -28 -28 -28 -29 -29 -30 -31 -32 -32 -33 -33 -32 -32 -32 -31
-13 -13 -14 -15 -15 -15 -15 -15 -15 -14 -14 -14 -14 -14 -14 -14 -13 -13 -14 -14 -13 -13 -15 -23 -23 -23 -26 -27 -27 -28 -28 -29 -30 -31 -31 -32 -32 -32 -32 -32 -32 -32 -31 -31
-13 -13 -14 -15 -15 -15 -15 -15 -15 -15 -15 -15 -15 -15 -14 -14 -14 -14 -15 -14 -16 -20 -22 -23 -23 -23 -26 -26 -27 -28 -29 -30 -30 -31 -31 -31 -31 -31 -31 -30 -30 -30 -30 -29
-14 -14 -14 -15 -15 -15 -16 -16 -16 -16 -16 -16 -15 -16 -15 -15 -15 -15 -15 -15 -15 -18 -16 -15 -21 -25 -26 -27 -28 -29 -30 -30 -30 -30 -30 -30 -30 -30 -30 -29 -29 -29 -29 -29

GFSNGP_850_dewp_123.txt.gz
Dewpoint
-8 -12 -14 -13 -10 -6 -3 -3 -2 -5 -3 1 -6 -13 -14 -15 -15 -14 -14 -11 -7 -4 1 4 5 4 5 4 5 5 6 9 9 9 10 10 9 9 9 9 9 9 9 9
-7 -10 -12 -13 -13 -10 -8 -7 -7 -7 -8 -12 -13 -15 -16 -16 -14 -12 -12 -9 -4 1 2 4 4 4 4 4 3 4 4 8 9 9 10 10 9 9 8 9 9 9 9 9
-4 -9 -9 -10 -14 -14 -13 -12 -9 -9 -10 -13 -15 -16 -14 -10 -9 -8 -10 1 2 3 3 3 3 3 3 3 3 4 4 5 8 9 10 10 9 9 9 9 8 8 8 9
-2 -5 -2 -11 -16 -16 -13 -13 -14 -14 -15 -17 -14 -7 -5 -5 -6 -5 1 2 2 3 3 2 2 2 2 2 3 4 4 4 8 9 10 9 9 9 9 8 8 8 8 8
-1 -2 -4 -8 -5 -8 -7 -8 -13 -12 -11 -8 -3 -1 -4 3 3 3 3 2 2 2 1 1 1 0 2 2 3 5 4 4 7 9 10 9 9 9 9 8 8 8 9 8
-2 2 -1 -3 -8 -8 -7 -3 -2 -0 -0 0 0 3 2 2 1 1 1 1 0 0 0 -0 -0 1 2 2 3 5 5 4 7 9 9 9 9 9 9 8 9 8 8 8
0 2 -3 1 -4 -5 0 2 1 1 1 1 1 2 1 0 0 -0 -0 -0 -1 -1 -1 -2 -1 0 1 1 1 3 4 5 6 8 9 8 9 9 9 9 9 8 8 8
2 2 3 1 -2 4 3 -0 1 2 0 -0 1 1 1 -0 -1 -1 -2 -2 -2 -2 -2 -3 -2 -0 0 -0 0 2 3 5 5 6 8 9 8 8 9 8 8 8 8 7
2 2 1 -0 -1 -1 -0 2 1 -0 0 0 -1 -1 -1 -2 -2 -3 -3 -3 -4 -4 -4 -4 -4 -1 -1 -1 -0 -0 0 4 4 6 8 8 8 8 8 8 8 7 7 6
1 -0 -1 -1 -2 -2 -2 -2 -1 -1 -1 -1 -2 -2 -2 -3 -3 -4 -4 -5 -5 -5 -5 -5 -5 -4 -3 -2 -1 -1 -1 0 1 3 3 6 7 8 7 7 7 7 6 5
2 -1 -3 -1 -2 -2 -2 -2 -2 -1 -1 -2 -3 -3 -3 -3 -4 -4 -5 -5 -5 -5 -6 -5 -6 -5 -4 -3 -3 -2 -1 -1 -0 1 1 0 3 3 4 4 5 6 5 4
-0 -2 -2 -1 -2 -2 -2 -2 -2 -2 -3 -3 -4 -4 -4 -5 -5 -6 -7 -7 -7 -8 -8 -8 -8 -7 -5 -4 -4 -4 -3 -2 -2 -0 -1 -0 -1 -2 -2 -0 1 2 2 2
-3 -4 -4 -2 -2 -3 -3 -3 -3 -4 -4 -4 -4 -5 -5 -6 -6 -7 -8 -8 -8 -9 -9 -9 -9 -8 -7 -6 -5 -5 -4 -4 -4 -4 -2 -1 -1 -2 -4 -5 -3 -2 -2 -2
-4 -4 -4 -4 -4 -5 -4 -4 -4 -4 -4 -5 -5 -6 -6 -7 -7 -7 -8 -9 -9 -9 -9 -9 -9 -9 -9 -8 -7 -6 -6 -5 -6 -6 -6 -6 -5 -6 -5 -6 -8 -9 -8 -6
-7 -5 -6 -6 -6 -6 -6 -5 -5 -5 -5 -5 -6 -6 -8 -8 -8 -8 -8 -9 -9 -9 -9 -9 -9 -10 -10 -9 -8 -7 -7 -7 -7 -7 -7 -8 -8 -9 -9 -9 -11 -12 -11 -10
-8 -7 -7 -7 -7 -7 -7 -6 -6 -6 -6 -6 -7 -7 -8 -8 -9 -9 -9 -9 -9 -10 -10 -10 -10 -10 -10 -10 -9 -9 -8 -8 -8 -9 -9 -9 -10 -10 -11 -12 -12 -11 -11 -11
-9 -9 -9 -8 -8 -8 -8 -7 -7 -7 -7 -8 -9 -9 -9 -9 -9 -9 -9 -9 -9 -10 -10 -10 -10 -10 -10 -10 -10 -10 -10 -10 -9 -9 -10 -11 -11 -12 -12 -11 -12 -12 -12 -12
-10 -10 -10 -9 -9 -9 -9 -8 -8 -8 -9 -10 -9 -9 -9 -9 -10 -10 -9 -10 -10 -9 -10 -10 -10 -10 -10 -10 -10 -11 -11 -11 -10 -10 -11 -11 -11 -11 -11 -10 -11 -12 -13 -13
-12 -11 -11 -11 -10 -10 -10 -9 -10 -10 -10 -10 -10 -10 -10 -10 -10 -10 -10 -10 -10 -10 -10 -10 -10 -10 -10 -10 -10 -10 -10 -10 -11 -11 -11 -11 -11 -11 -11 -11 -12 -14 -19 -21
-12 -12 -12 -12 -12 -13 -13 -13 -12 -11 -11 -10 -11 -11 -11 -10 -10 -10 -10 -10 -10 -10 -10 -10 -9 -9 -9 -9 -10 -10 -10 -10 -10 -11 -11 -11 -11 -11 -12 -13 -15 -19 -23 -27
-13 -12 -14 -15 -15 -14 -14 -14 -12 -12 -12 -11 -11 -11 -11 -11 -11 -11 -10 -11 -10 -10 -10 -9 -10 -10 -9 -9 -9 -9 -9 -10 -10 -10 -10 -10 -11 -11 -12 -14 -19 -23 -25 -28
-12 -14 -14 -15 -15 -14 -14 -14 -13 -13 -13 -13 -12 -12 -12 -12 -12 -12 -11 -12 -11 -11 -10 -9 -9 -9 -9 -9 -9 -9 -10 -10 -11 -12 -12 -14 -17 -22 -24 -25 -27 -28 -28 -27
-11 -12 -12 -14 -15 -14 -13 -13 -14 -14 -14 -14 -13 -13 -13 -13 -12 -12 -12 -12 -12 -12 -11 -11 -13 -17 -17 -11 -11 -11 -11 -12 -14 -16 -19 -20 -19 -21 -23 -24 -25 -27 -27 -28
-11 -12 -12 -13 -13 -12 -13 -13 -14 -14 -15 -14 -14 -14 -13 -12 -13 -14 -14 -13 -12 -12 -11 -11 -12 -18 -16 -16 -16 -16 -15 -15 -15 -16 -17 -18 -20 -24 -26 -25 -26 -29 -29 -29
-12 -12 -12 -12 -12 -13 -13 -13 -13 -14 -14 -14 -14 -14 -14 -14 -14 -14 -14 -14 -14 -14 -16 -19 -20 -17 -14 -14 -15 -16 -16 -17 -18 -19 -22 -25 -25 -24 -26 -29 -29 -30 -31 -31
-12 -12 -12 -13 -14 -13 -14 -14 -14 -14 -14 -14 -14 -15 -15 -15 -15 -15 -14 -15 -15 -15 -15 -15 -16 -17 -17 -18 -18 -18 -19 -19 -20 -20 -21 -20 -23 -27 -29 -31 -31 -31 -31 -31
-12 -13 -13 -13 -13 -14 -15 -15 -15 -14 -15 -15 -15 -15 -15 -15 -15 -15 -15 -15 -15 -16 -15 -16 -17 -17 -17 -18 -19 -21 -22 -22 -23 -23 -25 -28 -29 -30 -30 -30 -30 -31 -31 -30

GFSNGP_850_dewp_126.txt.gz
Dewpoint
-8 -7 -11 -13 -13 -12 -9 -2 -1 -2 -1 1 3 2 2 1 -15 -15 -14 -13 -12 -9 2 3 4 4 4 4 4 4 3 4 6 9 9 10 10 11 11 10 8 9 10 10
2 -5 -9 -9 -9 -13 -14 -10 -7 -7 -4 -7 -4 -5 -8 -14 -14 -11 -10 -10 -9 2 3 3 3 3 3 3 3 3 3 3 4 7 9 10 10 11 10 9 8 9 9 9
-2 -7 -7 -6 -11 -12 -16 -15 -13 -8 -8 -9 -10 -7 -4 -4 -5 -5 -7 -2 1 3 3 2 2 2 3 2 2 2 3 3 4 6 8 9 10 10 10 9 9 9 8 9
-1 -4 -2 -7 -6 -7 -14 -14 -14 -14 -14 -6 -1 -2 -1 3 3 3 3 2 2 2 2 2 2 1 1 0 1 2 3 3 4 5 7 9 9 10 10 9 9 9 9 9
-1 -4 -6 -7 -1 -5 -6 -8 -1 -0 0 -0 -0 -1 1 2 2 1 1 1 0 0 0 0 0 -0 0 1 0 2 3 4 4 4 7 8 9 10 10 9 9 8 9 9
-1 2 -1 2 -1 -2 -5 -3 3 0 1 1 1 2 2 1 0 1 0 -1 -1 -1 -1 -1 -2 -1 -0 -0 -0 1 2 3 5 5 6 8 8 10 9 9 9 9 9 8
2 2 1 0 -1 -3 1 2 2 1 1 0 1 1 0 0 -0 -1 -1 -2 -2 -2 -2 -3 -3 -3 -1 -1 -2 -0 2 3 4 4 6 6 7 9 9 9 9 8 8 8
0 0 1 -1 -3 0 -1 -1 -1 -0 0 1 0 -0 -1 -2 -2 -3 -3 -3 -4 -4 -4 -4 -4 -4 -4 -2 -3 -2 0 2 3 4 5 6 6 9 9 9 8 8 8 8
2 1 0 -1 -1 -2 -2 -2 -1 -0 -0 -1 -2 -2 -2 -3 -3 -4 -4 -5 -5 -5 -5 -5 -5 -6 -5 -3 -4 -2 -1 0 2 3 3 5 6 9 9 8 8 8 7 7
0 -0 -3 -1 -1 -2 -2 -2 -2 -1 -1 -1 -3 -3 -3 -4 -4 -4 -5 -5 -6 -6 -6 -6 -6 -7 -6 -5 -4 -3 -2 -1 -1 -0 2 3 3 1 8 8 7 8 7 6
0 -1 -3 -2 -2 -2 -2 -2 -2 -2 -2 -3 -3 -4 -3 -4 -5 -5 -6 -6 -7 -7 -8 -8 -8 -8 -7 -6 -5 -4 -3 -2 -2 -1 -1 0 1 -1 0 7 6 8 7 6
-0 -1 -1 -1 -2 -3 -3 -4 -3 -4 -4 -4 -4 -4 -5 -5 -7 -7 -8 -8 -9 -9 -9 -9 -9 -8 -8 -7 -6 -6 -5 -4 -4 -3 -3 -2 -1 -1 -3 0 2 2 4 4
-2 -3 -2 -3 -4 -5 -5 -5 -3 -5 -5 -5 -5 -5 -6 -6 -8 -8 -8 -9 -9 -9 -9 -10 -9 -9 -8 -8 -8 -7 -6 -5 -5 -5 -5 -5 -5 -2 -4 -6 -3 -3 -3 -3
-5 -5 -5 -6 -5 -6 -6 -6 -5 -5 -5 -5 -6 -6 -7 -7 -8 -8 -8 -9 -9 -9 -10 -10 -10 -10 -10 -9 -8 -7 -7 -7 -7 -6 -7 -7 -8 -8 -6 -8 -8 -8 -7 -6
-7 -6 -7 -6 -6 -7 -7 -6 -6 -6 -6 -6 -6 -7 -7 -8 -8 -8 -9 -9 -9 -10 -10 -10 -10 -10 -10 -10 -9 -8 -8 -8 -8 -8 -8 -9 -10 -10 -10 -10 -11 -12 -11 -11
-8 -7 -8 -8 -8 -8 -8 -7 -7 -7 -7 -7 -8 -8 -8 -8 -9 -9 -9 -9 -9 -10 -10 -10 -10 -10 -10 -10 -10 -10 -9 -9 -10 -10 -10 -10 -11 -11 -12 -12 -12 -12 -12 -12
-9 -9 -10 -9 -9 -9 -9 -8 -8 -8 -8 -9 -9 -9 -9 -9 -9 -9 -9 -9 -10 -10 -10 -10 -10 -10 -10 -10 -10 -11 -10 -10 -10 -10 -11 -12 -12 -12 -12 -12 -13 -13 -12 -12
-11 -10 -11 -10 -10 -10 -10 -9 -9 -10 -10 -10 -10 -10 -10 -10 -10 -10 -9 -10 -10 -10 -10 -10 -10 -10 -11 -10 -11 -11 -11 -11 -11 -11 -11 -11 -12 -12 -12 -12 -13 -12 -12 -11
-11 -11 -11 -11 -11 -11 -11 -11 -11 -11 -11 -11 -10 -10 -10 -10 -10 -10 -10 -10 -10 -10 -10 -10 -10 -10 -10 -11 -11 -11 -11 -11 -11 -11 -11 -12 -12 -12 -11 -12 -12 -12 -12 -12
-11 -11 -12 -13 -13 -13 -13 -13 -13 -12 -12 -12 -11 -11 -11 -11 -10 -10 -10 -11 -11 -11 -10 -10 -10 -10 -10 -11 -10 -11 -11 -11 -11 -11 -11 -11 -12 -12 -12 -12 -12 -13 -13 -14
-11 -12 -12 -14 -15 -13 -13 -13 -13 -13 -13 -13 -12 -12 -12 -12 -11 -11 -10 -11 -11 -11 -10 -10 -10 -10 -10 -10 -10 -10 -11 -11 -11 -11 -12 -12 -12 -13 -13 -13 -14 -19 -24 -24
-10 -11 -11 -13 -14 -14 -13 -13 -14 -13 -14 -14 -13 -12 -11 -11 -11 -11 -12 -12 -12 -12 -11 -10 -10 -11 -11 -10 -10 -10 -10 -11 -11 -12 -12 -12 -12 -12 -13 -14 -15 -17 -22 -25
-10 -11 -11 -12 -13 -12 -12 -12 -14 -14 -15 -14 -14 -13 -13 -12 -13 -12 -12 -12 -12 -12 -11 -12 -12 -12 -12 -12 -11 -11 -11 -12 -12 -12 -15 -16 -17 -21 -23 -24 -24 -24 -26 -27
-11 -12 -12 -12 -13 -12 -13 -13 -14 -13 -15 -13 -14 -14 -13 -13 -13 -13 -14 -14 -13 -12 -12 -12 -13 -14 -13 -13 -13 -13 -13 -14 -16 -17 -19 -21 -22 -23 -23 -24 -24 -25 -26 -27
-12 -11 -11 -12 -13 -13 -13 -14 -13 -13 -15 -13 -15 -14 -14 -14 -14 -14 -14 -14 -14 -14 -14 -14 -14 -14 -14 -14 -14 -14 -14 -15 -16 -18 -19 -20 -20 -21 -23 -24 -25 -27 -28 -29
-12 -12 -12 -12 -12 -13 -13 -14 -14 -14 -15 -14 -14 -15 -15 -15 -15 -15 -15 -15 -15 -15 -15 -15 -15 -15 -15 -15 -15 -15 -15 -16 -17 -18 -20 -21 -23 -25 -26 -27 -29 -30 -31 -31
-11 -12 -12 -12 -13 -14 -14 -15 -15 -14 -16 -15 -14 -15 -15 -15 -15 -15 -15 -15 -15 -16 -16 -16 -16 -16 -16 -16 -16 -16 -17 -17 -17 -19 -21 -24 -25 -27 -28 -29 -30 -31 -31 -32

GFSNGP_850_dewp_132.txt.gz
Dewpoint
-1 -2 -3 -2 -3 -5 -6 -6 -2 -5 -3 0 1 1 2 2 3 2 2 1 2 2 2 1 1 1 1 1 -0 -1 -3 -3 -4 -2 -1 -2 1 3 6 8 9 9 10 11
-0 -3 -4 -4 -0 0 1 2 -1 -1 2 0 1 1 2 2 2 1 1 0 0 0 0 0 0 -0 -0 -1 -1 -1 -2 -2 -2 -2 -2 -1 -0 2 4 8 9 10 10 11
-0 -4 -3 -0 0 1 2 2 3 2 2 -0 0 2 1 1 1 1 0 -0 -1 -1 -2 -1 -1 -2 -1 -1 -1 -1 -1 -1 -1 -1 -2 -1 -0 2 3 6 8 9 10 10
1 -1 -0 -1 -4 -1 1 -1 -0 0 -0 -0 0 1 1 0 0 -0 -0 -2 -3 -3 -3 -3 -3 -3 -2 -2 -2 -2 -2 -1 -1 -0 -1 -0 0 2 3 6 8 9 10 10
1 1 -2 -4 -4 -2 -1 -0 -2 -1 -1 -0 0 -0 1 -1 -2 -3 -4 -4 -4 -4 -4 -3 -3 -3 -3 -3 -4 -4 -3 -2 -1 0 0 0 1 3 4 5 7 7 9 10
1 1 1 -1 -3 -4 -4 1 -2 -1 -0 -0 -1 0 0 -2 -3 -4 -4 -4 -4 -5 -4 -4 -4 -4 -4 -4 -5 -4 -4 -3 -1 -0 0 1 1 3 4 4 5 7 8 10
-1 -1 0 -2 -2 -4 -3 -2 -2 -1 -2 -1 -0 -1 -2 -3 -4 -4 -5 -5 -5 -5 -5 -5 -5 -6 -5 -5 -5 -5 -4 -3 -2 -1 -1 0 1 1 3 3 4 6 7 7
-3 -6 -3 -1 -3 -2 -1 -2 -2 -2 -2 -2 -2 -3 -3 -4 -5 -5 -6 -6 -6 -6 -7 -7 -7 -6 -6 -6 -6 -6 -5 -4 -4 -3 -2 -0 0 1 2 2 4 5 5 6
0 0 -1 -1 -1 -2 -2 -2 -2 -3 -2 -3 -3 -4 -4 -5 -5 -6 -6 -7 -7 -8 -8 -8 -8 -8 -8 -8 -7 -6 -6 -6 -5 -4 -2 -1 0 1 1 1 2 3 3 5
-2 -1 -1 -2 -2 -3 -3 -2 -3 -4 -3 -5 -4 -5 -6 -6 -6 -7 -7 -8 -8 -8 -8 -9 -9 -9 -9 -9 -8 -8 -7 -7 -6 -5 -3 -3 -1 -1 -0 0 0 1 1 1
-2 -2 -2 -1 -3 -3 -4 -4 -4 -4 -4 -5 -6 -6 -6 -7 -8 -8 -8 -9 -9 -9 -10 -10 -10 -10 -10 -9 -8 -8 -8 -7 -7 -6 -5 -5 -4 -3 -3 -2 -1 -1 -0 1
-3 -2 -2 -2 -3 -5 -5 -4 -5 -5 -5 -5 -6 -7 -7 -8 -8 -9 -9 -9 -9 -9 -10 -10 -10 -10 -10 -10 -9 -9 -9 -8 -8 -7 -7 -6 -6 -5 -5 -4 -3 -2 -1 -1
-3 -4 -4 -5 -6 -6 -6 -6 -6 -6 -6 -7 -7 -8 -8 -8 -9 -9 -9 -9 -9 -9 -10 -10 -10 -10 -10 -10 -10 -9 -9 -9 -9 -8 -8 -8 -8 -8 -8 -7 -6 -5 -3 -2
-4 -7 -5 -7 -8 -7 -7 -7 -7 -8 -8 -8 -8 -8 -9 -9 -9 -9 -9 -9 -10 -10 -10 -10 -10 -10 -10 -10 -10 -10 -10 -10 -10 -10 -9 -9 -9 -9 -9 -10 -9 -9 -8 -6
-8 -7 -7 -8 -8 -8 -9 -9 -10 -10 -10 -10 -9 -9 -10 -10 -9 -10 -9 -9 -10 -10 -10 -10 -10 -10 -10 -10 -10 -10 -10 -10 -11 -11 -11 -10 -10 -10 -11 -11 -11 -11 -11 -11
-9 -9 -9 -9 -10 -10 -11 -11 -11 -12 -11 -11 -11 -10 -10 -10 -10 -10 -10 -10 -10 -10 -10 -10 -10 -10 -11 -11 -11 -11 -11 -11 -11 -11 -11 -11 -11 -11 -11 -11 -11 -12 -12 -12
-9 -10 -11 -11 -12 -12 -12 -12 -13 -13 -12 -12 -12 -11 -11 -10 -11 -10 -11 -10 -10 -10 -10 -10 -11 -11 -11 -11 -11 -11 -11 -11 -11 -12 -12 -12 -12 -12 -11 -11 -12 -12 -12 -12
-11 -11 -12 -13 -13 -14 -14 -14 -15 -14 -14 -13 -13 -11 -11 -11 -11 -11 -11 -11 -11 -10 -10 -11 -11 -11 -11 -11 -11 -11 -11 -11 -12 -12 -12 -12 -12 -12 -12 -12 -12 -12 -12 -11
-11 -12 -13 -13 -14 -14 -14 -14 -15 -15 -15 -14 -13 -12 -12 -12 -11 -11 -11 -11 -11 -11 -11 -11 -11 -11 -11 -11 -11 -11 -11 -11 -12 -12 -12 -12 -12 -12 -12 -12 -12 -12 -12 -11
-12 -12 -12 -13 -14 -15 -14 -14 -14 -15 -15 -14 -14 -13 -12 -11 -12 -12 -12 -12 -12 -12 -11 -11 -11 -11 -11 -11 -11 -11 -11 -11 -12 -12 -12 -12 -12 -12 -12 -12 -12 -12 -12 -12
-11 -11 -12 -14 -14 -13 -13 -13 -14 -15 -15 -14 -15 -13 -13 -12 -13 -13 -13 -13 -13 -12 -12 -12 -11 -12 -11 -11 -11 -11 -11 -11 -11 -12 -12 -12 -12 -12 -12 -12 -12 -12 -12 -12
-11 -11 -13 -13 -14 -13 -13 -14 -15 -14 -15 -14 -15 -14 -13 -13 -13 -13 -13 -14 -13 -13 -13 -12 -12 -12 -12 -12 -11 -11 -11 -12 -12 -12 -12 -12 -12 -12 -12 -13 -12 -12 -12 -12
-11 -12 -12 -12 -13 -14 -14 -14 -14 -13 -16 -13 -15 -15 -15 -13 -14 -14 -15 -15 -14 -14 -13 -13 -13 -13 -13 -12 -12 -12 -12 -12 -12 -12 -12 -13 -12 -12 -12 -12 -13 -13 -13 -16
-13 -12 -12 -13 -13 -14 -15 -15 -14 -14 -14 -14 -15 -15 -15 -15 -15 -15 -15 -15 -15 -14 -14 -14 -14 -13 -13 -13 -13 -13 -13 -13 -13 -13 -13 -13 -14 -17 -18 -18 -19 -20 -21 -23
-13 -13 -13 -12 -12 -14 -15 -15 -14 -15 -15 -14 -16 -16 -16 -15 -15 -15 -15 -15 -15 -15 -15 -14 -14 -14 -14 -14 -14 -14 -15 -16 -17 -18 -19 -20 -21 -22 -23 -23 -24 -26 -26 -27
-11 -12 -13 -13 -14 -15 -15 -16 -16 -16 -16 -15 -15 -16 -16 -16 -16 -15 -15 -16 -16 -16 -16 -15 -15 -15 -15 -15 -15 -15 -16 -17 -17 -18 -19 -20 -21 -23 -24 -24 -25 -25 -26 -27
-12 -12 -13 -14 -15 -15 -15 -16 -16 -16 -16 -15 -16 -16 -16 -16 -16 -16 -16 -16 -16 -16 -16 -16 -16 -16 -16 -16 -16 -16 -16 -17 -18 -19 -20 -21 -22 -23 -25 -26 -27 -27 -28 -28

GFSNGP_850_dewp_138.txt.gz
Dewpoint
-2 -3 -3 -3 -2 -2 1 -0 1 1 2 0 -0 1 1 1 -0 -0 -1 -2 -3 -3 -3 -4 -4 -2 -2 -3 -4 -3 -3 -3 -3 -3 -2 -2 -2 -2 -2 -2 -2 -2 -0 2
-1 -2 -1 -1 -2 -2 -0 -0 -1 1 2 -3 -3 -2 -1 -1 -2 -3 -3 -4 -4 -5 -5 -5 -5 -5 -6 -6 -5 -5 -5 -4 -4 -3 -3 -3 -2 -1 -2 -2 -2 -2 -0 1
-1 -2 -2 0 -2 -2 -1 -0 -0 0 -0 -2 -2 -1 -1 -2 -3 -4 -4 -5 -5 -6 -6 -6 -6 -5 -5 -6 -6 -6 -5 -5 -4 -4 -4 -3 -3 -2 -2 -2 -2 -1 0 2
0 -1 -0 -2 -4 -4 -1 -2 -2 -2 -3 -3 -3 -2 -3 -3 -4 -4 -5 -6 -6 -7 -7 -7 -7 -6 -6 -6 -6 -6 -5 -5 -5 -4 -4 -4 -3 -2 -1 -1 -2 -1 0 1
-1 1 -2 -1 -3 -3 -2 -1 -3 -3 -3 -3 -3 -2 -3 -4 -5 -6 -6 -7 -7 -7 -8 -8 -8 -8 -8 -8 -8 -8 -7 -6 -6 -5 -5 -4 -4 -3 -2 -1 -1 -0 0 1
-1 1 0 -2 -3 -3 -3 -1 -2 -2 -2 -3 -3 -3 -3 -5 -6 -6 -7 -8 -8 -8 -9 -9 -9 -8 -8 -9 -9 -8 -8 -7 -7 -6 -5 -5 -4 -3 -3 -1 -1 -0 -0 1
-2 -6 -5 -3 -2 -3 -1 -2 -2 -2 -3 -3 -3 -3 -5 -5 -6 -7 -8 -8 -8 -8 -9 -9 -9 -9 -8 -8 -8 -9 -8 -8 -8 -7 -7 -6 -5 -4 -3 -2 -1 -0 0 0
-5 -7 -5 -3 -3 -3 -3 -2 -2 -2 -3 -4 -5 -5 -5 -6 -7 -8 -9 -8 -9 -9 -9 -9 -9 -9 -9 -9 -9 -9 -9 -8 -8 -8 -8 -7 -7 -6 -5 -4 -2 -1 -0 0
-5 -5 -4 -2 -3 -3 -3 -3 -3 -3 -4 -4 -5 -5 -6 -7 -7 -8 -9 -9 -9 -9 -9 -9 -9 -9 -10 -10 -10 -10 -10 -9 -9 -9 -9 -8 -8 -7 -6 -5 -4 -4 -3 -1
-3 -3 -2 -3 -2 -3 -4 -3 -3 -5 -5 -5 -6 -6 -7 -7 -8 -8 -9 -9 -9 -10 -10 -9 -10 -10 -10 -10 -10 -10 -10 -10 -10 -10 -10 -9 -8 -8 -7 -7 -6 -6 -5 -4
-3 -3 -3 -2 -3 -3 -3 -3 -5 -6 -6 -7 -7 -8 -8 -8 -8 -9 -9 -9 -9 -10 -10 -10 -10 -10 -10 -10 -10 -10 -10 -11 -11 -11 -10 -10 -9 -9 -9 -8 -8 -8 -7 -5
-5 -4 -5 -3 -3 -5 -4 -5 -6 -7 -8 -9 -10 -10 -9 -9 -10 -10 -10 -10 -10 -10 -10 -10 -10 -10 -10 -10 -10 -11 -11 -11 -11 -12 -11 -11 -11 -10 -9 -9 -9 -8 -7 -5
-4 -4 -4 -4 -6 -6 -7 -7 -8 -9 -10 -11 -11 -11 -11 -11 -10 -10 -10 -10 -10 -10 -10 -10 -10 -10 -10 -10 -10 -11 -11 -11 -12 -12 -12 -12 -11 -11 -11 -10 -9 -9 -8 -6
-4 -4 -4 -6 -6 -7 -8 -9 -10 -11 -12 -12 -13 -13 -13 -12 -11 -11 -11 -11 -11 -11 -11 -11 -10 -10 -10 -10 -10 -11 -11 -12 -12 -12 -12 -12 -11 -11 -11 -11 -10 -10 -10 -9
-6 -7 -6 -7 -8 -9 -10 -12 -13 -13 -14 -14 -14 -14 -14 -13 -12 -12 -11 -11 -11 -11 -11 -11 -11 -10 -10 -10 -11 -11 -11 -12 -12 -12 -12 -12 -11 -11 -11 -11 -11 -11 -11 -11
-7 -8 -9 -9 -10 -12 -13 -13 -14 -14 -15 -15 -15 -15 -14 -13 -12 -12 -12 -11 -11 -12 -12 -12 -11 -11 -10 -10 -11 -11 -11 -12 -12 -12 -12 -12 -12 -12 -12 -12 -12 -12 -12 -12
-6 -9 -10 -11 -12 -13 -13 -13 -14 -15 -15 -16 -15 -15 -13 -13 -12 -13 -13 -12 -12 -12 -12 -11 -11 -11 -11 -11 -11 -11 -11 -11 -12 -12 -12 -12 -12 -13 -13 -13 -13 -13 -13 -13
-10 -11 -12 -12 -12 -13 -13 -14 -14 -15 -16 -15 -15 -15 -13 -13 -13 -13 -13 -13 -14 -14 -13 -12 -12 -11 -11 -11 -11 -11 -11 -12 -12 -12 -12 -12 -12 -13 -13 -13 -13 -13 -14 -14
-11 -12 -12 -12 -13 -14 -14 -14 -14 -15 -16 -15 -16 -16 -14 -13 -13 -13 -14 -15 -15 -14 -13 -13 -12 -12 -12 -12 -12 -11 -12 -12 -12 -12 -12 -12 -12 -12 -13 -13 -13 -14 -14 -14
-11 -11 -11 -12 -14 -14 -14 -13 -14 -15 -15 -16 -14 -16 -16 -14 -14 -14 -15 -15 -14 -14 -13 -13 -13 -13 -12 -12 -12 -12 -12 -12 -12 -13 -13 -13 -13 -13 -13 -13 -13 -14 -14 -14
-10 -11 -12 -13 -13 -14 -15 -15 -15 -15 -14 -16 -14 -16 -16 -16 -15 -15 -15 -15 -15 -14 -14 -14 -13 -13 -13 -13 -13 -13 -13 -13 -13 -13 -13 -13 -13 -13 -13 -13 -14 -14 -14 -13
-10 -11 -13 -12 -13 -14 -14 -15 -15 -15 -15 -15 -15 -16 -17 -17 -16 -16 -15 -15 -15 -15 -15 -14 -14 -14 -14 -14 -14 -14 -13 -14 -14 -14 -14 -14 -14 -14 -14 -14 -14 -14 -14 -14
-11 -13 -13 -13 -13 -13 -14 -15 -15 -15 -15 -16 -15 -16 -17 -16 -15 -16 -16 -16 -16 -15 -15 -15 -15 -14 -14 -14 -14 -14 -14 -14 -14 -14 -14 -14 -14 -14 -14 -14 -14 -14 -14 -14
-13 -13 -14 -14 -13 -13 -15 -16 -16 -16 -16 -16 -15 -16 -17 -17 -16 -16 -16 -17 -16 -16 -16 -15 -15 -15 -15 -15 -15 -15 -15 -15 -16 -17 -18 -19 -20 -19 -16 -15 -14 -14 -14 -14
-12 -12 -13 -13 -14 -14 -15 -15 -16 -16 -16 -15 -15 -16 -17 -16 -16 -16 -16 -17 -17 -16 -16 -16 -16 -16 -16 -16 -16 -16 -17 -17 -17 -18 -19 -20 -20 -21 -22 -23 -23 -22 -21 -16
-11 -11 -12 -13 -14 -15 -15 -16 -17 -17 -16 -16 -17 -17 -17 -17 -17 -17 -17 -17 -17 -17 -17 -17 -17 -16 -16 -16 -16 -16 -18 -18 -18 -19 -19 -20 -21 -21 -22 -22 -23 -24 -24 -25
-12 -12 -13 -14 -15 -15 -16 -16 -16 -17 -16 -16 -16 -16 -17 -17 -17 -17 -17 -17 -17 -17 -17 -17 -17 -17 -17 -17 -17 -17 -18 -20 -20 -20 -20 -21 -23 -23 -23 -24 -24 -24 -25 -25

GFSNGP_850_dewp_141.txt.gz
Dewpoint
-3 -3 -3 -3 -3 -2 -1 -1 1 -3 -1 -1 -2 -3 1 -1 -3 -4 -4 -5 -5 -5 -6 -6 -5 -5 -2 -2 -3 -4 -4 -4 -4 -4 -4 -3 -3 -3 -3 -3 -3 -2 -2 -1
-1 -3 -2 -1 -2 -4 -2 -0 -1 -2 -1 -1 -4 -4 -2 -3 -3 -4 -5 -6 -6 -6 -7 -7 -7 -7 -5 -5 -5 -6 -5 -4 -5 -5 -4 -4 -4 -3 -3 -3 -2 -2 -1 -1
-2 -3 -2 -1 -2 -4 -4 -1 -1 -1 -1 -4 -4 -4 -2 -4 -4 -5 -5 -6 -6 -7 -8 -8 -8 -8 -8 -7 -6 -6 -6 -6 -5 -5 -4 -4 -4 -4 -3 -3 -2 -2 -1 -1
-1 -2 -0 -2 -5 -5 -3 -3 -3 -3 -3 -4 -4 -4 -3 -4 -5 -5 -6 -7 -7 -7 -8 -8 -9 -8 -8 -8 -7 -7 -7 -7 -6 -5 -5 -4 -4 -4 -4 -3 -2 -1 -1 -1
-0 -1 -3 -2 -4 -3 -2 -2 -3 -3 -4 -4 -5 -4 -3 -4 -5 -6 -7 -8 -8 -8 -8 -9 -9 -9 -8 -9 -8 -8 -8 -7 -7 -7 -7 -7 -6 -5 -4 -4 -3 -2 -1 -1
-1 -0 -0 -2 -3 -3 -3 -2 -2 -2 -3 -3 -5 -4 -4 -5 -6 -7 -8 -8 -9 -9 -9 -9 -9 -9 -9 -9 -9 -9 -9 -9 -9 -8 -8 -7 -7 -6 -5 -5 -4 -3 -2 -1
-2 -1 -3 -4 -3 -3 -1 -1 -2 -2 -2 -3 -4 -4 -4 -6 -6 -8 -8 -9 -9 -9 -9 -9 -9 -9 -9 -9 -10 -10 -10 -10 -9 -9 -9 -9 -8 -7 -6 -6 -5 -4 -3 -2
-3 -2 -2 -3 -4 -3 -2 -2 -3 -3 -3 -4 -4 -5 -5 -6 -7 -8 -9 -9 -9 -9 -9 -9 -9 -9 -10 -10 -10 -10 -10 -10 -10 -10 -10 -10 -9 -8 -7 -7 -6 -5 -4 -3
-2 -3 -4 -2 -3 -3 -3 -3 -3 -3 -4 -5 -5 -6 -7 -7 -7 -8 -9 -9 -9 -9 -10 -10 -10 -10 -10 -10 -10 -10 -10 -10 -11 -11 -10 -10 -10 -9 -9 -8 -8 -7 -6 -5
-2 -3 -2 -2 -3 -3 -3 -3 -3 -5 -6 -7 -7 -7 -8 -8 -9 -9 -10 -10 -10 -10 -10 -10 -10 -10 -10 -10 -10 -10 -11 -11 -11 -11 -11 -11 -11 -11 -10 -9 -9 -9 -8 -7
-3 -3 -2 -2 -2 -2 -2 -3 -4 -6 -7 -8 -10 -9 -9 -9 -10 -10 -10 -11 -10 -10 -10 -10 -10 -10 -10 -10 -10 -10 -11 -11 -11 -12 -12 -12 -12 -11 -11 -10 -9 -10 -9 -9
-1 -5 -5 -3 -3 -4 -4 -5 -7 -8 -9 -11 -12 -12 -12 -10 -10 -11 -11 -11 -11 -11 -11 -11 -11 -10 -10 -10 -10 -10 -11 -11 -12 -12 -12 -12 -12 -12 -12 -11 -10 -10 -10 -9
-3 -4 -4 -4 -5 -6 -7 -8 -9 -10 -12 -12 -12 -13 -14 -13 -12 -11 -11 -11 -11 -11 -11 -11 -11 -11 -11 -11 -11 -11 -11 -12 -12 -12 -12 -12 -12 -12 -12 -13 -12 -11 -11 -10
-4 -4 -5 -6 -6 -7 -8 -10 -12 -12 -13 -13 -14 -13 -14 -14 -13 -12 -12 -12 -11 -11 -11 -11 -11 -11 -11 -11 -11 -11 -11 -12 -12 -12 -12 -13 -12 -12 -12 -12 -12 -12 -12 -12
-5 -5 -5 -6 -8 -9 -11 -12 -13 -14 -14 -15 -15 -15 -14 -13 -12 -12 -12 -12 -12 -13 -13 -12 -11 -11 -11 -11 -11 -11 -11 -12 -12 -12 -12 -13 -13 -13 -13 -13 -13 -13 -13 -13
-7 -7 -8 -9 -10 -12 -12 -13 -14 -14 -15 -15 -15 -15 -14 -13 -12 -13 -13 -13 -13 -13 -13 -12 -12 -11 -11 -11 -11 -11 -11 -12 -12 -12 -12 -12 -13 -13 -13 -13 -13 -13 -14 -14
-5 -9 -10 -10 -12 -12 -13 -14 -14 -15 -15 -16 -16 -16 -14 -14 -14 -14 -14 -15 -15 -14 -13 -12 -12 -12 -12 -12 -12 -11 -12 -12 -12 -12 -12 -13 -13 -13 -13 -13 -14 -14 -14 -14
-8 -10 -12 -12 -12 -13 -13 -14 -14 -15 -16 -15 -16 -16 -16 -14 -14 -14 -15 -15 -16 -14 -13 -13 -12 -12 -12 -12 -12 -12 -12 -12 -12 -12 -13 -13 -13 -13 -13 -13 -14 -14 -14 -14
-12 -12 -11 -12 -13 -13 -14 -14 -14 -15 -15 -16 -15 -16 -16 -15 -15 -15 -15 -15 -15 -15 -14 -14 -13 -13 -13 -13 -13 -13 -13 -13 -13 -13 -13 -13 -13 -13 -14 -14 -14 -14 -14 -14
-11 -11 -11 -12 -13 -14 -15 -15 -15 -15 -15 -16 -15 -16 -17 -16 -16 -16 -16 -16 -15 -15 -14 -14 -14 -14 -14 -14 -14 -13 -13 -13 -13 -13 -13 -13 -13 -14 -14 -14 -14 -14 -14 -14
-10 -11 -12 -13 -13 -14 -15 -15 -16 -15 -15 -15 -15 -16 -17 -16 -16 -16 -17 -17 -16 -16 -15 -15 -14 -14 -14 -14 -14 -14 -14 -14 -14 -14 -14 -14 -14 -14 -14 -14 -14 -14 -14 -14
-10 -12 -13 -13 -13 -14 -14 -15 -15 -15 -15 -15 -15 -16 -17 -17 -17 -17 -16 -17 -16 -16 -16 -15 -15 -14 -15 -15 -15 -15 -14 -14 -14 -14 -14 -14 -14 -14 -14 -14 -14 -14 -14 -14
-12 -13 -13 -14 -13 -14 -15 -16 -16 -16 -16 -16 -15 -16 -17 -16 -16 -16 -17 -17 -16 -16 -16 -16 -15 -15 -15 -15 -15 -15 -15 -15 -15 -15 -15 -16 -15 -14 -14 -14 -14 -14 -14 -14
-12 -13 -13 -14 -14 -14 -15 -15 -16 -16 -16 -15 -16 -16 -17 -17 -17 -17 -17 -17 -17 -17 -17 -16 -16 -16 -16 -16 -16 -16 -16 -16 -17 -19 -20 -20 -21 -21 -18 -15 -14 -15 -15 -15
-12 -12 -13 -13 -14 -15 -15 -16 -17 -16 -16 -16 -17 -17 -17 -17 -17 -17 -17 -17 -17 -17 -17 -17 -17 -16 -16 -16 -16 -17 -18 -18 -19 -19 -20 -21 -21 -22 -22 -22 -21 -19 -15 -15
-11 -11 -12 -13 -15 -15 -16 -16 -17 -17 -16 -16 -17 -17 -17 -17 -17 -17 -17 -17 -17 -17 -17 -17 -17 -17 -17 -17 -17 -17 -18 -19 -20 -20 -21 -22 -21 -22 -22 -23 -23 -23 -23 -22
-12 -12 -13 -14 -15 -15 -15 -16 -15 -16 -16 -16 -17 -17 -17 -17 -17 -17 -17 -17 -17 -17 -17 -18 -17 -17 -17 -17 -17 -17 -17 -17 -19 -21 -21 -22 -22 -23 -23 -23 -23 -24 -25 -25

GFSNGP_850_dewp_147.txt.gz
Dewpoint
-13 -11 -10 -10 -9 -10 -9 -9 -6 -9 -9 -6 -4 -4 -3 -5 -5 -5 -6 -6 -6 -7 -7 -6 -7 -7 -7 -6 -6 -6 -5 -5 -5 -5 -4 -2 -1 -0 -1 -1 -1 -0 1 0
-6 -11 -11 -10 -11 -11 -10 -10 -9 -9 -7 -4 -6 -6 -6 -5 -5 -5 -6 -7 -7 -7 -7 -7 -7 -7 -7 -7 -6 -7 -6 -6 -6 -6 -5 -5 -4 -3 -3 -3 -2 -2 -0 -0
-6 -8 -8 -5 -7 -8 -8 -6 -2 -3 -5 -6 -6 -6 -5 -5 -5 -5 -7 -8 -8 -7 -8 -7 -7 -7 -7 -7 -7 -6 -7 -7 -6 -6 -6 -6 -5 -5 -4 -4 -3 -4 -3 -3
-5 -5 -3 -5 -7 -8 -6 -6 -7 -6 -6 -6 -6 -6 -4 -4 -5 -6 -7 -7 -8 -8 -8 -8 -8 -8 -7 -7 -7 -7 -7 -7 -7 -7 -7 -6 -6 -5 -5 -4 -5 -4 -4 -4
-2 -5 -5 -4 -5 -6 -5 -5 -5 -5 -6 -6 -6 -6 -2 -4 -6 -6 -7 -8 -8 -8 -8 -8 -8 -8 -8 -7 -7 -7 -7 -7 -7 -7 -7 -7 -7 -6 -6 -5 -5 -5 -5 -5
-4 -3 -5 -2 -5 -6 -6 -2 -4 -5 -4 -4 -5 -4 -4 -5 -6 -7 -7 -8 -9 -9 -9 -9 -9 -8 -8 -7 -7 -7 -8 -8 -7 -7 -7 -7 -7 -6 -6 -6 -6 -5 -5 -5
-2 -2 -3 -4 -6 -5 -1 1 -3 -3 -3 -3 -3 -4 -4 -5 -7 -8 -8 -8 -9 -9 -9 -9 -9 -9 -8 -8 -8 -8 -8 -8 -8 -8 -7 -7 -7 -7 -7 -7 -7 -7 -7 -6
-2 0 -1 -6 -5 -3 -1 -2 -3 -3 -3 -3 -3 -5 -6 -8 -8 -9 -9 -10 -10 -10 -10 -10 -9 -9 -9 -9 -8 -8 -8 -8 -8 -8 -8 -8 -8 -8 -8 -8 -8 -8 -9 -9
-3 -1 -4 -5 -2 -1 -2 -3 -3 -3 -3 -4 -5 -7 -8 -9 -9 -9 -10 -10 -10 -11 -10 -10 -10 -10 -10 -9 -9 -9 -9 -9 -9 -9 -9 -9 -9 -9 -9 -9 -9 -9 -9 -9
-1 -2 -3 -2 -2 -2 -2 -2 -3 -4 -5 -6 -7 -8 -8 -9 -10 -11 -10 -10 -11 -11 -11 -10 -10 -10 -10 -9 -9 -10 -10 -10 -9 -9 -9 -9 -9 -9 -9 -10 -10 -10 -10 -10
-1 -2 -2 -2 -2 -2 -2 -3 -4 -5 -6 -7 -9 -9 -10 -10 -11 -11 -10 -11 -11 -11 -10 -10 -11 -10 -10 -10 -10 -10 -10 -10 -10 -10 -10 -10 -10 -10 -10 -10 -11 -11 -11 -11
-2 0 -0 -2 -2 -2 -2 -4 -5 -6 -8 -9 -10 -11 -11 -11 -11 -10 -10 -10 -10 -10 -10 -11 -11 -10 -10 -11 -11 -11 -11 -10 -10 -10 -10 -10 -10 -10 -10 -10 -11 -11 -11 -12
-6 -2 -2 -2 -2 -3 -4 -5 -7 -9 -9 -10 -11 -12 -12 -11 -9 -11 -11 -11 -12 -12 -12 -12 -12 -12 -12 -11 -11 -11 -11 -11 -11 -11 -10 -10 -11 -10 -10 -10 -11 -11 -11 -12
-4 -3 -3 -4 -5 -5 -6 -7 -10 -11 -11 -12 -12 -12 -12 -11 -11 -11 -12 -14 -15 -15 -12 -14 -13 -12 -12 -12 -11 -11 -11 -11 -11 -11 -11 -11 -11 -11 -11 -11 -11 -11 -11 -12
-4 -4 -4 -5 -6 -8 -9 -10 -11 -12 -12 -13 -13 -12 -12 -11 -11 -12 -13 -15 -16 -13 -14 -13 -13 -13 -12 -12 -12 -12 -11 -11 -11 -11 -11 -11 -11 -11 -11 -12 -12 -12 -12 -12
-5 -5 -6 -7 -8 -10 -11 -11 -12 -12 -13 -13 -13 -13 -13 -12 -11 -12 -14 -15 -14 -13 -13 -13 -13 -13 -13 -13 -13 -12 -11 -12 -12 -12 -12 -12 -12 -12 -12 -12 -12 -12 -12 -13
-5 -5 -6 -8 -9 -10 -11 -12 -12 -13 -13 -13 -12 -15 -16 -16 -12 -14 -16 -16 -14 -13 -13 -14 -14 -14 -13 -13 -13 -13 -12 -12 -12 -12 -12 -12 -12 -12 -13 -13 -13 -13 -13 -14
-5 -6 -7 -8 -10 -10 -11 -12 -12 -12 -12 -13 -16 -16 -17 -17 -15 -15 -15 -14 -13 -13 -13 -14 -14 -14 -13 -13 -14 -13 -12 -12 -13 -13 -13 -13 -13 -13 -13 -13 -13 -13 -13 -14
-8 -8 -8 -10 -11 -11 -11 -11 -11 -12 -15 -16 -16 -16 -16 -16 -17 -16 -14 -13 -13 -13 -14 -14 -15 -14 -14 -14 -14 -13 -13 -13 -13 -13 -13 -13 -13 -13 -13 -13 -13 -13 -14 -14
-10 -10 -10 -11 -11 -11 -11 -13 -14 -14 -15 -15 -16 -14 -17 -14 -15 -16 -14 -13 -14 -15 -15 -15 -15 -15 -15 -14 -14 -14 -14 -13 -14 -14 -14 -13 -13 -13 -13 -14 -14 -14 -14 -15
-10 -10 -10 -12 -13 -14 -15 -15 -15 -14 -15 -16 -16 -16 -17 -14 -14 -14 -13 -13 -14 -15 -15 -15 -15 -16 -16 -15 -14 -14 -15 -15 -14 -14 -14 -14 -14 -14 -14 -14 -14 -15 -15 -15
-9 -10 -12 -13 -14 -15 -15 -16 -16 -16 -16 -16 -16 -16 -15 -13 -14 -13 -14 -15 -15 -16 -16 -15 -16 -16 -16 -16 -15 -15 -15 -16 -16 -15 -15 -15 -15 -15 -15 -15 -15 -15 -15 -15
-10 -12 -13 -14 -14 -14 -15 -16 -16 -16 -15 -16 -16 -17 -15 -14 -13 -14 -14 -15 -16 -16 -16 -16 -17 -17 -16 -16 -16 -16 -16 -16 -16 -16 -16 -16 -16 -16 -16 -16 -16 -16 -16 -16
-11 -12 -13 -13 -14 -13 -12 -13 -13 -15 -16 -14 -15 -16 -15 -14 -14 -14 -15 -16 -16 -17 -16 -17 -17 -17 -17 -17 -17 -17 -17 -17 -17 -17 -17 -17 -17 -17 -17 -17 -17 -17 -16 -16
-11 -11 -13 -13 -12 -11 -13 -13 -13 -13 -14 -14 -14 -14 -15 -15 -15 -16 -16 -16 -16 -17 -17 -17 -18 -18 -17 -17 -17 -18 -17 -18 -18 -18 -18 -18 -18 -18 -18 -18 -18 -18 -17 -17
-11 -10 -11 -11 -11 -12 -12 -12 -12 -13 -13 -13 -13 -15 -15 -15 -16 -16 -16 -16 -17 -17 -17 -17 -18 -18 -18 -18 -18 -18 -18 -18 -19 -19 -19 -19 -19 -19 -19 -19 -19 -19 -20 -22
-11 -11 -11 -12 -12 -12 -12 -12 -13 -13 -13 -14 -14 -15 -15 -15 -16 -16 -16 -16 -17 -17 -17 -17 -18 -18 -19 -19 -18 -18 -19 -19 -19 -19 -19 -19 -19 -19 -20 -20 -20 -20 -21 -24

GFSNGP_850_dewp_150.txt.gz
Dewpoint
-11 -12 -13 -9 -9 -11 -9 -8 -5 -9 -10 -4 -4 -5 -6 -6 -5 -6 -6 -6 -7 -7 -7 -7 -7 -7 -7 -7 -7 -7 -6 -6 -7 -6 -6 -6 -5 -2 -1 -1 -0 -1 0 1
-3 -12 -14 -11 -13 -12 -11 -12 -12 -12 -10 -5 -7 -7 -7 -5 -6 -6 -6 -7 -8 -8 -8 -8 -7 -8 -7 -7 -7 -7 -7 -7 -7 -7 -7 -6 -6 -5 -2 -0 -1 -1 -2 -1
-4 -9 -10 -8 -11 -12 -12 -10 -5 -3 -7 -7 -7 -7 -6 -5 -5 -6 -7 -7 -8 -8 -8 -8 -8 -8 -8 -7 -7 -7 -7 -7 -7 -7 -7 -7 -6 -6 -5 -5 -3 -1 -1 -3
-3 -5 -3 -8 -9 -8 -8 -8 -7 -8 -8 -7 -7 -7 -6 -4 -5 -6 -7 -7 -8 -8 -8 -8 -8 -8 -8 -7 -7 -7 -7 -8 -7 -7 -7 -7 -7 -7 -6 -6 -5 -5 -4 -4
-2 -4 -7 -5 -6 -6 -7 -7 -8 -7 -7 -7 -6 -6 -3 -4 -5 -6 -7 -7 -8 -9 -9 -9 -9 -8 -8 -8 -7 -8 -8 -8 -7 -7 -7 -7 -7 -7 -7 -6 -6 -6 -5 -5
-1 -2 -2 -2 -6 -7 -6 -4 -7 -5 -5 -5 -5 -3 0 -4 -6 -7 -8 -8 -9 -9 -10 -9 -9 -9 -9 -9 -8 -9 -9 -8 -8 -8 -8 -8 -8 -7 -7 -7 -7 -7 -7 -6
-0 0 -3 -4 -6 -7 -3 0 -3 -3 -4 -2 -2 -2 -3 -5 -7 -8 -8 -9 -10 -10 -10 -10 -10 -10 -10 -9 -8 -9 -9 -8 -9 -8 -8 -8 -8 -8 -8 -8 -9 -9 -8 -8
-1 -0 0 -6 -5 -4 -1 -2 -3 -3 -3 -3 -3 -3 -5 -8 -8 -9 -9 -10 -10 -11 -11 -10 -10 -10 -10 -9 -9 -10 -9 -9 -9 -9 -9 -9 -9 -9 -9 -9 -9 -10 -10 -11
0 -1 -4 -5 -1 -1 -2 -2 -2 -3 -3 -4 -5 -6 -8 -8 -9 -10 -10 -10 -11 -11 -11 -10 -10 -10 -10 -9 -10 -10 -10 -10 -9 -9 -9 -9 -9 -9 -9 -9 -10 -10 -10 -10
0 -1 -3 -2 -2 -2 -2 -2 -3 -4 -4 -5 -6 -8 -8 -9 -10 -11 -10 -11 -11 -11 -11 -11 -11 -11 -10 -10 -10 -10 -10 -10 -10 -10 -10 -10 -9 -10 -10 -10 -10 -10 -10 -11
-1 -2 -3 -2 -2 -2 -3 -3 -4 -5 -6 -7 -8 -9 -10 -10 -11 -10 -10 -10 -10 -10 -11 -11 -11 -11 -10 -11 -11 -11 -11 -11 -10 -10 -10 -10 -10 -10 -10 -10 -10 -11 -11 -12
-1 -0 -0 -2 -2 -2 -2 -3 -4 -5 -7 -8 -10 -11 -11 -11 -10 -10 -10 -10 -11 -11 -11 -11 -11 -11 -12 -12 -12 -12 -11 -11 -11 -11 -11 -10 -11 -10 -11 -11 -11 -11 -11 -12
-5 -2 -2 -1 -2 -2 -2 -4 -6 -8 -9 -10 -11 -11 -11 -10 -10 -12 -11 -14 -15 -15 -12 -13 -13 -12 -12 -12 -12 -12 -12 -11 -11 -11 -11 -11 -11 -11 -11 -11 -11 -11 -12 -12
-4 -3 -3 -3 -4 -4 -4 -6 -9 -10 -11 -11 -11 -11 -11 -10 -11 -11 -13 -15 -15 -14 -13 -13 -13 -13 -13 -13 -12 -12 -12 -11 -12 -11 -11 -11 -11 -12 -12 -12 -12 -12 -12 -12
-5 -3 -3 -4 -5 -6 -7 -9 -10 -11 -11 -12 -12 -12 -12 -12 -12 -11 -12 -16 -15 -13 -13 -13 -13 -13 -14 -13 -12 -13 -12 -12 -12 -12 -11 -12 -12 -12 -12 -12 -12 -12 -13 -13
-4 -5 -5 -6 -7 -9 -10 -11 -11 -11 -12 -12 -12 -13 -13 -13 -11 -12 -15 -16 -14 -13 -12 -13 -14 -14 -14 -13 -13 -13 -12 -12 -12 -12 -12 -12 -12 -12 -12 -12 -13 -13 -13 -13
-5 -5 -6 -7 -8 -9 -10 -11 -11 -12 -12 -12 -12 -16 -17 -17 -14 -16 -16 -15 -14 -13 -13 -14 -14 -14 -14 -14 -14 -14 -13 -13 -13 -13 -13 -13 -13 -13 -13 -13 -13 -13 -13 -14
-4 -4 -6 -7 -9 -10 -10 -11 -11 -11 -11 -14 -16 -16 -17 -17 -16 -17 -16 -14 -13 -13 -14 -15 -14 -14 -14 -14 -15 -14 -14 -14 -14 -13 -13 -13 -13 -13 -13 -13 -14 -14 -14 -14
-8 -8 -8 -8 -8 -8 -9 -10 -11 -12 -15 -16 -16 -16 -17 -16 -15 -16 -15 -13 -13 -14 -16 -15 -15 -15 -15 -15 -15 -14 -14 -14 -14 -14 -14 -14 -13 -13 -13 -14 -14 -14 -14 -14
-8 -9 -9 -10 -9 -10 -10 -12 -13 -14 -15 -16 -16 -15 -17 -16 -13 -15 -15 -13 -13 -15 -16 -15 -15 -15 -16 -16 -15 -15 -15 -15 -15 -15 -14 -14 -14 -14 -14 -14 -14 -14 -14 -15
-9 -9 -10 -10 -12 -13 -15 -15 -15 -15 -16 -16 -16 -16 -16 -13 -14 -14 -13 -14 -15 -15 -17 -15 -16 -16 -16 -16 -15 -16 -16 -16 -16 -15 -15 -15 -15 -15 -15 -15 -15 -15 -15 -15
-9 -9 -11 -12 -13 -14 -15 -15 -16 -16 -16 -16 -16 -17 -15 -13 -13 -13 -14 -14 -15 -16 -16 -15 -17 -17 -17 -16 -16 -16 -16 -17 -16 -16 -16 -16 -16 -16 -15 -16 -15 -15 -16 -16
-9 -11 -12 -13 -13 -14 -15 -16 -16 -16 -16 -16 -16 -16 -16 -14 -14 -14 -14 -15 -15 -16 -16 -16 -17 -17 -17 -16 -16 -17 -17 -17 -17 -17 -17 -17 -17 -16 -16 -17 -17 -16 -17 -17
-9 -11 -12 -13 -14 -13 -12 -14 -13 -15 -15 -14 -15 -15 -15 -14 -15 -14 -15 -15 -16 -16 -16 -16 -17 -17 -17 -17 -17 -17 -17 -17 -18 -17 -17 -17 -17 -17 -17 -17 -18 -18 -18 -17
-9 -10 -12 -14 -12 -11 -13 -14 -14 -13 -13 -12 -13 -14 -15 -15 -15 -15 -16 -16 -16 -16 -16 -17 -17 -17 -17 -17 -17 -17 -17 -17 -18 -18 -18 -18 -18 -18 -18 -18 -18 -19 -18 -18
-10 -10 -10 -10 -10 -11 -11 -11 -11 -12 -13 -13 -13 -14 -15 -15 -15 -16 -16 -16 -16 -16 -17 -17 -17 -18 -18 -18 -18 -18 -18 -18 -18 -19 -19 -19 -19 -19 -19 -19 -19 -19 -20 -23
-9 -10 -11 -11 -11 -12 -11 -12 -12 -12 -13 -14 -14 -14 -15 -15 -15 -16 -16 -16 -17 -17 -17 -17 -17 -18 -18 -18 -18 -18 -18 -19 -19 -19 -19 -19 -19 -19 -19 -19 -19 -20 -22 -23

GFSNGP_850_dewp_156.txt.gz
Dewpoint
-8 -9 -8 -10 -7 -8 -3 -4 -2 -4 -5 -3 -1 -2 -4 -6 -6 -6 -7 -7 -7 -7 -8 -8 -9 -9 -9 -9 -9 -8 -8 -10 -10 -9 -8 -8 -7 -8 -7 -7 -6 -6 -5 -5
-6 -6 -6 -6 -8 -8 -8 -7 -5 -5 -4 -4 -5 -5 -5 -6 -6 -6 -6 -7 -7 -8 -8 -9 -9 -9 -9 -9 -9 -9 -9 -11 -10 -9 -9 -8 -9 -8 -8 -7 -7 -7 -6 -6
-4 -6 -6 -6 -6 -10 -9 -10 -7 -4 -3 -6 -5 -5 -5 -5 -6 -6 -6 -7 -8 -8 -9 -10 -10 -10 -10 -10 -10 -10 -10 -12 -10 -9 -8 -8 -9 -9 -9 -9 -9 -8 -7 -7
-1 -4 -2 -7 -9 -10 -8 -5 -6 -5 -6 -6 -5 -5 -5 -5 -6 -6 -7 -8 -9 -9 -10 -10 -10 -10 -10 -10 -10 -10 -11 -12 -10 -9 -9 -9 -9 -9 -8 -9 -11 -10 -9 -9
-0 -1 -4 -6 -6 -6 -5 -2 -3 -5 -5 -4 -4 -4 -5 -5 -6 -8 -8 -9 -10 -10 -10 -11 -11 -10 -10 -10 -10 -11 -12 -11 -10 -9 -9 -9 -10 -10 -9 -9 -11 -11 -11 -12
-0 -1 -1 -5 -4 -6 -8 -2 -2 -4 -4 -4 -3 -3 -3 -7 -8 -9 -9 -10 -10 -10 -11 -11 -11 -10 -10 -11 -11 -12 -12 -11 -10 -10 -10 -10 -10 -10 -10 -9 -11 -11 -11 -12
0 -3 -1 -4 -6 -8 -3 -2 -2 -3 -3 -3 -3 -3 -4 -8 -9 -10 -10 -10 -10 -11 -11 -11 -11 -11 -12 -12 -13 -12 -12 -11 -11 -11 -11 -10 -11 -10 -10 -10 -11 -11 -11 -12
-2 -2 0 -5 -6 -4 -3 -2 -3 -3 -4 -4 -4 -5 -8 -9 -10 -10 -10 -10 -10 -11 -12 -11 -12 -12 -13 -13 -13 -12 -12 -11 -11 -11 -11 -11 -11 -11 -11 -11 -11 -11 -11 -12
-2 -2 -1 -2 -3 -3 -3 -3 -3 -4 -4 -4 -7 -8 -9 -9 -10 -10 -10 -10 -12 -14 -14 -15 -14 -14 -14 -13 -13 -13 -13 -12 -11 -11 -12 -11 -12 -12 -11 -11 -11 -11 -11 -12
-2 -0 -0 -2 -2 -2 -3 -3 -4 -4 -4 -6 -8 -9 -9 -10 -10 -10 -11 -14 -15 -16 -16 -15 -14 -14 -13 -14 -13 -13 -13 -12 -12 -13 -12 -11 -12 -13 -12 -12 -11 -12 -12 -13
-2 -0 -1 -2 -2 -2 -3 -4 -5 -6 -6 -7 -8 -10 -11 -11 -11 -11 -14 -15 -16 -16 -14 -14 -14 -13 -14 -14 -13 -13 -13 -12 -12 -13 -12 -12 -12 -13 -13 -12 -12 -12 -12 -13
-3 -1 -2 -2 -3 -3 -4 -4 -5 -6 -9 -10 -10 -11 -11 -11 -12 -14 -15 -16 -17 -15 -14 -14 -14 -15 -15 -14 -14 -14 -13 -12 -13 -14 -11 -13 -13 -14 -13 -13 -12 -13 -13 -14
-1 -2 -2 -2 -3 -4 -4 -5 -7 -7 -9 -10 -11 -11 -12 -13 -14 -14 -14 -17 -16 -14 -14 -14 -15 -15 -14 -14 -14 -15 -12 -12 -13 -14 -12 -13 -13 -13 -13 -15 -14 -14 -14 -15
-3 -2 -2 -2 -3 -3 -4 -7 -7 -9 -10 -11 -12 -12 -14 -15 -15 -15 -17 -16 -15 -14 -14 -15 -15 -15 -15 -15 -15 -14 -13 -13 -14 -14 -12 -13 -14 -13 -12 -14 -14 -14 -15 -15
-2 -3 -2 -3 -3 -4 -6 -7 -9 -11 -11 -12 -12 -13 -15 -16 -17 -17 -17 -15 -14 -14 -15 -16 -15 -15 -16 -16 -16 -14 -14 -14 -14 -14 -13 -13 -14 -13 -13 -14 -15 -14 -15 -15
-3 -3 -3 -3 -5 -7 -9 -10 -11 -11 -12 -12 -12 -15 -17 -17 -16 -17 -16 -15 -14 -15 -16 -16 -16 -16 -17 -17 -16 -15 -15 -16 -15 -15 -14 -14 -13 -13 -13 -14 -15 -16 -16 -15
-4 -6 -6 -7 -8 -10 -10 -11 -11 -11 -12 -12 -13 -16 -17 -17 -17 -16 -14 -13 -14 -15 -17 -17 -16 -18 -17 -16 -16 -15 -16 -16 -16 -15 -15 -15 -14 -14 -14 -14 -14 -15 -15 -16
-5 -5 -6 -7 -9 -10 -10 -10 -10 -11 -11 -13 -16 -17 -17 -17 -16 -14 -14 -14 -14 -16 -17 -16 -16 -18 -17 -16 -16 -16 -16 -17 -17 -16 -16 -16 -15 -15 -15 -15 -15 -15 -16 -16
-6 -6 -7 -7 -8 -9 -10 -11 -9 -10 -13 -16 -16 -17 -17 -15 -15 -14 -15 -14 -15 -17 -17 -16 -16 -18 -17 -16 -17 -17 -17 -17 -18 -17 -17 -17 -16 -16 -16 -16 -16 -16 -16 -16
-6 -6 -7 -7 -9 -9 -8 -8 -10 -13 -16 -16 -17 -17 -15 -15 -15 -15 -15 -15 -15 -16 -17 -16 -17 -18 -17 -17 -17 -17 -17 -18 -18 -18 -18 -18 -17 -17 -17 -17 -17 -17 -17 -17
-7 -7 -8 -8 -8 -8 -9 -12 -14 -15 -16 -17 -17 -16 -15 -15 -14 -14 -15 -15 -16 -17 -17 -17 -18 -18 -17 -17 -18 -18 -18 -18 -18 -18 -18 -18 -18 -18 -18 -18 -18 -18 -18 -18
-7 -7 -7 -8 -9 -11 -13 -15 -16 -16 -17 -17 -17 -17 -16 -15 -14 -14 -15 -16 -16 -17 -17 -17 -18 -18 -18 -18 -18 -18 -18 -18 -19 -18 -18 -18 -19 -19 -18 -19 -19 -19 -19 -18
-9 -9 -9 -11 -12 -13 -15 -16 -16 -17 -17 -16 -17 -17 -16 -16 -15 -15 -16 -17 -17 -17 -18 -18 -18 -18 -18 -18 -18 -19 -19 -19 -19 -19 -19 -19 -19 -19 -19 -19 -19 -19 -19 -19
-9 -9 -10 -12 -13 -14 -15 -16 -16 -16 -16 -16 -16 -15 -16 -16 -16 -16 -16 -17 -17 -17 -18 -18 -18 -18 -19 -19 -19 -19 -19 -19 -19 -19 -19 -19 -19 -19 -19 -19 -19 -20 -20 -21
-9 -9 -11 -12 -13 -13 -15 -15 -15 -15 -14 -14 -14 -14 -15 -15 -16 -17 -17 -17 -17 -17 -17 -18 -18 -18 -18 -19 -20 -20 -20 -20 -20 -20 -19 -19 -20 -19 -20 -20 -20 -20 -20 -20
-8 -9 -11 -12 -13 -14 -15 -14 -14 -14 -13 -13 -13 -13 -14 -15 -16 -16 -16 -17 -17 -18 -18 -18 -18 -19 -18 -18 -19 -19 -19 -20 -21 -20 -21 -20 -20 -20 -20 -20 -20 -20 -20 -20
-9 -10 -12 -12 -11 -11 -12 -13 -12 -13 -13 -14 -14 -14 -14 -15 -16 -16 -17 -17 -17 -17 -18 -18 -18 -18 -18 -18 -19 -18 -19 -19 -19 -20 -21 -21 -21 -22 -21 -20 -20 -20 -20 -20

GFSNGP_850_dewp_162.txt.gz
Dewpoint
-8 -9 -9 -9 -9 -5 -8 -10 -6 -8 -7 -5 -1 -1 -2 -3 -4 -5 -6 -7 -7 -7 -8 -9 -10 -10 -10 -11 -11 -12 -13 -15 -15 -14 -12 -11 -10 -10 -10 -10 -9 -11 -11 -10
-6 -7 -7 -8 -9 -5 -7 -7 -7 -6 -6 -8 -4 -2 -3 -4 -5 -6 -6 -7 -7 -8 -8 -9 -10 -10 -10 -11 -12 -13 -15 -15 -14 -13 -12 -11 -11 -11 -11 -11 -10 -11 -11 -11
-5 -6 -8 -7 -7 -8 -7 -6 -6 -5 -7 -3 -2 -2 -3 -4 -5 -6 -6 -6 -7 -8 -9 -10 -10 -10 -11 -11 -13 -14 -15 -14 -13 -12 -12 -12 -11 -11 -11 -11 -11 -11 -11 -11
-1 -5 -2 -6 -8 -10 -8 -8 -7 -7 -5 -3 -3 -3 -4 -5 -6 -6 -6 -7 -8 -9 -9 -10 -10 -11 -11 -13 -15 -16 -15 -14 -13 -12 -12 -12 -11 -12 -12 -11 -11 -11 -11 -11
2 1 -2 -5 -7 -7 -7 -7 -3 -4 -4 -5 -5 -5 -6 -6 -6 -6 -7 -8 -9 -9 -10 -10 -11 -11 -14 -15 -16 -15 -14 -14 -13 -12 -12 -12 -12 -12 -12 -12 -12 -11 -11 -12
1 2 2 -4 -7 -6 -7 -4 -3 -4 -4 -5 -5 -3 -5 -6 -6 -7 -7 -9 -10 -10 -10 -11 -12 -15 -16 -16 -15 -15 -14 -13 -12 -12 -13 -13 -12 -13 -13 -12 -12 -12 -11 -13
-0 1 -1 -5 -6 -8 -3 -3 -4 -4 -4 -4 -4 -4 -5 -7 -8 -8 -9 -10 -10 -10 -11 -14 -16 -16 -16 -15 -16 -15 -14 -14 -12 -13 -13 -12 -13 -13 -13 -13 -13 -12 -12 -14
-0 2 1 -5 -6 -4 -4 -3 -4 -4 -4 -4 -4 -5 -6 -8 -9 -9 -10 -10 -10 -12 -15 -16 -16 -16 -16 -16 -16 -15 -15 -14 -13 -13 -14 -12 -13 -13 -13 -14 -13 -13 -13 -14
-1 -1 -3 -2 -5 -6 -5 -4 -4 -5 -4 -4 -5 -7 -8 -9 -10 -10 -10 -11 -12 -16 -16 -16 -16 -16 -17 -16 -16 -16 -15 -14 -13 -14 -14 -12 -13 -14 -13 -14 -13 -13 -13 -14
-1 -1 -1 -1 -3 -4 -4 -5 -4 -5 -4 -5 -6 -8 -9 -9 -9 -10 -11 -13 -16 -16 -16 -16 -16 -17 -16 -16 -16 -16 -16 -15 -14 -14 -15 -13 -13 -14 -13 -13 -14 -14 -14 -14
-1 -1 -1 -2 -3 -4 -4 -4 -5 -5 -5 -6 -7 -9 -8 -9 -10 -11 -14 -16 -17 -16 -16 -16 -17 -17 -17 -17 -17 -17 -16 -15 -15 -16 -15 -14 -14 -14 -13 -13 -14 -14 -14 -14
-2 -2 -3 -2 -3 -3 -4 -4 -5 -5 -7 -8 -7 -8 -9 -10 -11 -14 -15 -17 -17 -16 -16 -17 -17 -17 -17 -18 -17 -17 -16 -16 -16 -16 -16 -15 -15 -15 -14 -13 -14 -15 -15 -15
-5 -2 -3 -3 -3 -4 -4 -5 -5 -6 -6 -8 -9 -10 -11 -11 -14 -15 -17 -17 -17 -16 -16 -17 -17 -17 -18 -18 -17 -16 -16 -17 -17 -17 -17 -16 -15 -14 -14 -14 -15 -15 -16 -16
-3 -2 -2 -3 -4 -4 -5 -6 -6 -7 -8 -9 -9 -11 -12 -14 -15 -17 -18 -17 -16 -16 -17 -18 -18 -18 -18 -18 -17 -17 -17 -17 -18 -18 -17 -17 -16 -15 -14 -15 -15 -16 -16 -17
-2 -3 -3 -3 -4 -5 -5 -6 -8 -9 -9 -10 -11 -12 -13 -15 -16 -17 -17 -17 -15 -16 -17 -18 -18 -18 -18 -18 -18 -18 -18 -18 -18 -18 -17 -17 -17 -16 -16 -15 -16 -16 -17 -18
-3 -3 -3 -3 -4 -5 -6 -8 -7 -9 -10 -11 -12 -12 -14 -16 -17 -17 -17 -16 -15 -16 -18 -18 -18 -19 -19 -18 -18 -18 -18 -18 -18 -18 -18 -18 -18 -17 -17 -16 -16 -17 -17 -17
-3 -4 -4 -5 -5 -6 -6 -7 -7 -7 -11 -11 -11 -13 -15 -16 -17 -17 -16 -14 -15 -17 -18 -18 -18 -19 -19 -18 -18 -19 -19 -19 -19 -19 -18 -18 -18 -18 -18 -18 -17 -18 -18 -18
-7 -7 -4 -3 -4 -6 -7 -8 -9 -10 -11 -11 -11 -14 -16 -17 -17 -16 -15 -15 -16 -17 -18 -18 -19 -19 -19 -19 -19 -19 -19 -19 -19 -19 -19 -19 -19 -19 -19 -19 -19 -19 -19 -19
-6 -5 -4 -4 -5 -5 -6 -9 -10 -11 -10 -11 -12 -15 -17 -17 -16 -15 -15 -15 -16 -17 -18 -19 -19 -19 -19 -19 -19 -19 -19 -19 -19 -19 -19 -19 -19 -19 -19 -19 -19 -20 -20 -19
-5 -4 -4 -4 -5 -6 -9 -10 -10 -10 -10 -11 -15 -16 -17 -16 -16 -15 -16 -16 -16 -18 -19 -19 -19 -19 -20 -20 -20 -20 -20 -20 -20 -19 -19 -19 -20 -20 -20 -20 -20 -20 -20 -20
-6 -5 -5 -6 -8 -9 -10 -9 -10 -9 -10 -14 -16 -17 -16 -16 -16 -16 -16 -15 -17 -18 -19 -19 -19 -20 -21 -21 -21 -21 -20 -20 -20 -20 -20 -20 -20 -20 -20 -20 -20 -20 -20 -20
-6 -6 -6 -8 -8 -9 -9 -9 -8 -11 -14 -15 -17 -17 -16 -16 -15 -15 -15 -16 -18 -19 -19 -19 -20 -21 -22 -22 -23 -23 -23 -23 -22 -22 -20 -20 -20 -20 -20 -20 -20 -20 -20 -20
-6 -7 -7 -8 -8 -8 -8 -9 -12 -14 -15 -16 -17 -17 -17 -16 -15 -15 -16 -17 -18 -19 -19 -20 -20 -20 -21 -23 -22 -22 -22 -21 -21 -22 -22 -22 -21 -21 -21 -20 -20 -20 -20 -20
-6 -7 -8 -8 -8 -8 -9 -12 -14 -16 -16 -17 -17 -17 -17 -17 -16 -16 -17 -17 -18 -18 -19 -21 -22 -21 -21 -22 -21 -20 -19 -19 -20 -20 -20 -20 -20 -21 -21 -21 -22 -23 -23 -22
-7 -7 -8 -8 -9 -11 -12 -13 -15 -16 -16 -17 -17 -18 -17 -17 -17 -17 -18 -17 -18 -18 -20 -21 -21 -20 -20 -19 -19 -19 -19 -19 -19 -19 -19 -19 -20 -20 -20 -21 -21 -21 -21 -23
-8 -9 -9 -9 -10 -12 -13 -14 -15 -16 -16 -17 -16 -16 -16 -15 -16 -17 -17 -19 -19 -19 -19 -20 -20 -20 -20 -19 -19 -19 -19 -19 -19 -19 -19 -20 -20 -20 -20 -21 -21 -21 -21 -21
-9 -9 -9 -10 -11 -12 -13 -14 -15 -16 -16 -16 -15 -15 -14 -14 -15 -16 -17 -17 -17 -17 -18 -20 -20 -20 -20 -20 -19 -19 -19 -19 -19 -20 -20 -20 -21 -21 -21 -21 -22 -22 -22 -22

GFSNGP_850_dewp_165.txt.gz
Dewpoint
-0 -0 -5 -7 -9 -8 -8 -8 -6 -8 -9 -8 -4 -1 -1 -1 -1 -3 -4 -5 -7 -7 -8 -8 -9 -10 -10 -11 -11 -14 -16 -16 -15 -14 -14 -13 -12 -12 -12 -12 -11 -11 -10 -10
1 -0 -7 -7 -8 -8 -8 -10 -10 -10 -9 -10 -8 -3 -1 -2 -2 -4 -5 -6 -7 -7 -8 -9 -10 -10 -10 -11 -13 -16 -16 -16 -15 -14 -14 -13 -12 -12 -12 -12 -12 -11 -10 -10
3 -4 -6 -2 -4 -7 -6 -7 -6 -7 -8 -6 -3 -3 -2 -2 -3 -5 -6 -7 -7 -7 -8 -9 -10 -10 -11 -12 -15 -16 -16 -15 -15 -14 -14 -13 -12 -12 -12 -11 -11 -10 -10 -10
4 -2 4 -1 -8 -8 -6 -8 -7 -7 -7 -5 -4 -3 -3 -3 -4 -6 -6 -7 -7 -8 -9 -10 -10 -10 -12 -15 -17 -16 -16 -15 -14 -14 -13 -12 -11 -11 -11 -11 -11 -11 -11 -11
3 3 -0 -2 -6 -6 -6 -6 -7 -7 -4 -4 -4 -4 -5 -5 -5 -6 -6 -7 -8 -9 -10 -10 -10 -12 -16 -17 -17 -16 -16 -15 -13 -13 -13 -11 -11 -11 -11 -11 -11 -11 -11 -12
3 4 4 -2 -7 -7 -8 -4 -4 -5 -4 -4 -4 -2 -4 -6 -6 -6 -7 -8 -9 -10 -10 -10 -12 -16 -17 -17 -17 -16 -16 -15 -13 -13 -14 -11 -12 -12 -12 -12 -12 -11 -12 -12
3 3 1 -3 -6 -7 -5 0 -3 -4 -4 -4 -2 -3 -6 -6 -6 -7 -8 -9 -10 -10 -10 -12 -16 -17 -17 -17 -16 -16 -16 -15 -14 -14 -14 -12 -12 -12 -12 -12 -12 -12 -12 -13
3 3 3 -5 -6 -3 -2 -3 -4 -4 -4 -4 -5 -6 -6 -7 -7 -8 -9 -9 -9 -10 -13 -16 -17 -17 -17 -17 -17 -17 -17 -16 -15 -15 -15 -13 -12 -12 -13 -13 -13 -13 -13 -13
1 1 -3 -4 -5 -6 -6 -4 -5 -4 -4 -5 -6 -6 -7 -8 -9 -9 -9 -9 -11 -14 -16 -16 -16 -17 -17 -17 -17 -18 -17 -16 -16 -16 -16 -15 -14 -14 -14 -13 -13 -13 -13 -13
-1 -1 -2 -1 -3 -5 -5 -6 -5 -6 -5 -5 -5 -7 -8 -9 -9 -9 -10 -11 -15 -16 -16 -16 -17 -17 -17 -18 -19 -18 -18 -17 -18 -18 -17 -16 -16 -15 -14 -14 -13 -13 -14 -14
-1 -1 -1 -2 -3 -4 -4 -5 -5 -5 -5 -5 -6 -8 -8 -9 -9 -10 -11 -15 -16 -16 -16 -17 -17 -17 -18 -19 -19 -18 -18 -18 -18 -18 -18 -17 -17 -14 -14 -14 -14 -14 -15 -15
1 -1 -1 -2 -3 -4 -5 -4 -5 -5 -5 -6 -7 -7 -8 -9 -10 -11 -15 -16 -16 -16 -16 -17 -18 -18 -19 -19 -19 -19 -19 -19 -19 -19 -18 -18 -17 -17 -15 -15 -15 -15 -16 -16
-4 -3 -4 -4 -4 -4 -4 -5 -5 -6 -6 -7 -8 -8 -8 -10 -11 -14 -16 -16 -16 -16 -17 -18 -18 -19 -19 -19 -19 -18 -18 -19 -19 -19 -18 -18 -18 -17 -16 -16 -17 -17 -17 -18
-4 -3 -3 -3 -4 -4 -5 -5 -5 -6 -7 -7 -8 -9 -10 -11 -14 -16 -17 -17 -17 -17 -17 -18 -19 -19 -20 -19 -19 -19 -19 -19 -19 -19 -18 -18 -18 -18 -17 -17 -17 -17 -18 -19
-3 -4 -4 -3 -4 -4 -5 -5 -7 -7 -8 -9 -9 -10 -12 -13 -15 -17 -17 -17 -16 -17 -18 -19 -19 -19 -19 -19 -19 -19 -19 -19 -19 -19 -19 -19 -19 -19 -18 -17 -18 -18 -19 -19
-3 -3 -3 -3 -4 -5 -6 -7 -7 -8 -9 -9 -11 -12 -13 -15 -16 -17 -17 -16 -16 -17 -18 -19 -19 -20 -19 -19 -19 -19 -19 -19 -19 -19 -19 -19 -19 -19 -19 -18 -18 -19 -19 -19
-4 -5 -5 -5 -5 -6 -6 -6 -7 -7 -9 -10 -11 -12 -13 -15 -16 -17 -16 -16 -16 -18 -19 -19 -19 -20 -20 -20 -20 -20 -20 -20 -20 -19 -19 -19 -20 -20 -20 -19 -19 -19 -19 -20
-6 -6 -4 -4 -4 -6 -6 -7 -7 -7 -9 -11 -11 -12 -14 -15 -16 -17 -16 -16 -16 -18 -19 -19 -19 -20 -20 -20 -20 -20 -20 -20 -20 -20 -20 -20 -20 -20 -20 -20 -19 -19 -20 -20
-6 -6 -4 -4 -4 -5 -6 -7 -7 -9 -10 -11 -11 -12 -15 -17 -17 -16 -16 -16 -17 -18 -19 -19 -19 -20 -20 -21 -21 -21 -21 -21 -21 -20 -20 -20 -20 -20 -20 -20 -20 -20 -20 -20
-5 -4 -4 -4 -4 -5 -6 -7 -8 -10 -11 -11 -11 -14 -16 -17 -16 -16 -16 -17 -17 -18 -19 -19 -20 -20 -21 -22 -22 -23 -23 -23 -23 -23 -22 -21 -20 -20 -20 -20 -20 -20 -20 -20
-5 -5 -4 -4 -5 -6 -7 -8 -10 -10 -10 -10 -11 -14 -16 -17 -16 -17 -17 -17 -17 -19 -19 -20 -20 -21 -23 -24 -25 -26 -26 -25 -25 -25 -24 -23 -22 -22 -21 -21 -20 -20 -20 -20
-5 -5 -5 -5 -5 -7 -9 -10 -10 -10 -9 -11 -15 -16 -17 -16 -16 -17 -16 -16 -17 -19 -19 -20 -21 -22 -23 -25 -25 -25 -23 -23 -22 -22 -21 -21 -21 -21 -22 -22 -22 -22 -22 -23
-5 -5 -6 -7 -8 -9 -9 -9 -9 -9 -11 -14 -15 -16 -17 -16 -17 -17 -17 -16 -17 -18 -19 -20 -21 -21 -22 -23 -23 -22 -21 -21 -21 -20 -19 -19 -20 -20 -20 -20 -21 -21 -21 -21
-6 -6 -7 -8 -9 -8 -8 -8 -9 -12 -14 -15 -16 -17 -16 -17 -16 -15 -16 -17 -17 -18 -20 -21 -22 -21 -21 -21 -21 -20 -20 -20 -20 -19 -19 -19 -19 -20 -20 -20 -20 -21 -21 -21
-7 -7 -8 -8 -8 -8 -8 -9 -12 -14 -15 -16 -17 -16 -17 -16 -17 -17 -17 -18 -18 -18 -19 -21 -20 -20 -20 -20 -20 -20 -19 -19 -19 -19 -19 -20 -20 -20 -20 -21 -21 -21 -21 -22
-7 -7 -7 -8 -8 -9 -10 -11 -13 -14 -15 -16 -17 -17 -18 -18 -17 -18 -18 -18 -20 -20 -20 -20 -20 -19 -20 -20 -19 -19 -19 -19 -20 -21 -21 -21 -21 -20 -21 -21 -21 -22 -22 -22
-7 -7 -8 -9 -10 -11 -11 -12 -13 -14 -16 -16 -17 -17 -16 -16 -16 -17 -17 -18 -19 -18 -18 -18 -18 -19 -19 -19 -19 -19 -20 -21 -23 -24 -24 -23 -22 -22 -21 -22 -22 -22 -23 -24

GFSNGP_850_dewp_168.txt.gz
Dewpoint
-1 -1 -1 1 -3 -7 -7 -7 0 1 1 -3 -7 -5 -4 -2 -2 -2 -1 -2 -3 -4 -5 -6 -6 -7 -9 -10 -11 -14 -13 -10 -9 -8 -8 -8 -8 -8 -8 -8 -8 -8 -9 -9
4 2 1 1 1 0 -1 -5 -6 -5 -7 -11 -12 -9 -5 -3 -2 -1 -2 -3 -4 -5 -6 -7 -8 -7 -10 -10 -13 -14 -11 -11 -10 -9 -9 -9 -9 -9 -9 -9 -8 -9 -9 -9
4 1 1 4 3 -0 -1 -1 -2 -4 -7 -11 -9 -8 -6 -3 -2 -2 -2 -4 -6 -7 -7 -8 -8 -10 -10 -11 -15 -13 -11 -10 -10 -10 -10 -10 -10 -10 -10 -10 -9 -9 -9 -10
5 3 5 -2 -5 -3 -3 -7 -8 -9 -9 -9 -9 -5 -5 -4 -3 -2 -4 -5 -6 -7 -8 -8 -9 -10 -11 -14 -14 -12 -11 -11 -10 -10 -11 -10 -10 -10 -10 -11 -11 -11 -10 -10
4 4 0 -1 -3 -4 -3 -2 -5 -6 -8 -6 -4 -4 -3 -3 -3 -4 -5 -6 -7 -8 -9 -9 -9 -11 -13 -13 -12 -11 -11 -10 -11 -10 -11 -11 -11 -11 -11 -11 -12 -12 -11 -11
5 4 3 -3 -5 -7 -8 -2 -6 -8 -7 -5 -5 -4 -2 -4 -4 -5 -7 -8 -9 -9 -9 -10 -11 -14 -14 -12 -12 -12 -12 -11 -11 -11 -11 -11 -11 -12 -12 -12 -12 -12 -11 -12
4 4 2 -3 -7 -8 -2 -0 -5 -6 -6 -5 -3 -2 -4 -6 -7 -8 -8 -9 -9 -10 -10 -11 -14 -15 -13 -12 -12 -14 -13 -12 -12 -12 -12 -12 -12 -12 -12 -12 -12 -12 -12 -12
4 5 4 -4 -6 -4 -3 -2 -3 -3 -3 -2 -3 -5 -6 -7 -8 -8 -9 -9 -10 -11 -12 -14 -16 -14 -13 -13 -16 -17 -14 -13 -13 -13 -13 -13 -12 -12 -12 -12 -12 -12 -12 -12
1 1 -1 -5 -3 -3 -3 -2 -2 -2 -2 -3 -5 -6 -7 -8 -8 -8 -9 -10 -11 -12 -14 -15 -15 -14 -13 -15 -17 -16 -16 -18 -15 -16 -13 -12 -12 -12 -12 -12 -12 -12 -12 -13
0 -2 -2 -2 -1 -2 -2 -2 -3 -2 -4 -5 -6 -7 -7 -8 -9 -10 -10 -11 -12 -13 -13 -13 -15 -16 -16 -20 -18 -15 -19 -20 -20 -18 -16 -13 -13 -13 -13 -13 -13 -13 -13 -14
0 -1 -1 -1 -1 -2 -2 -3 -3 -4 -5 -6 -7 -7 -8 -9 -10 -10 -11 -12 -13 -13 -13 -13 -14 -16 -20 -19 -18 -16 -20 -20 -17 -13 -15 -13 -13 -14 -14 -14 -15 -15 -15 -15
2 1 0 -1 -1 -2 -2 -3 -4 -5 -5 -6 -7 -7 -8 -9 -10 -11 -11 -12 -12 -13 -13 -14 -16 -19 -20 -19 -20 -20 -18 -15 -15 -14 -14 -14 -14 -13 -14 -14 -16 -16 -17 -17
-0 -1 -2 -1 -1 -2 -3 -4 -5 -5 -6 -7 -8 -8 -8 -9 -10 -11 -12 -12 -12 -13 -14 -16 -18 -19 -20 -20 -20 -21 -21 -20 -14 -14 -14 -14 -14 -14 -14 -14 -15 -16 -17 -17
0 -2 -2 -2 -3 -4 -4 -5 -5 -6 -7 -7 -8 -8 -9 -9 -11 -14 -15 -16 -16 -17 -18 -19 -20 -20 -20 -20 -21 -21 -20 -21 -18 -15 -15 -15 -15 -15 -15 -15 -15 -15 -16 -17
-2 -2 -3 -3 -4 -4 -5 -6 -7 -7 -7 -8 -8 -9 -9 -11 -13 -15 -16 -17 -17 -17 -19 -19 -20 -21 -21 -21 -21 -21 -20 -20 -20 -15 -15 -16 -16 -16 -16 -16 -16 -16 -16 -17
-2 -3 -4 -4 -5 -5 -6 -6 -7 -7 -8 -9 -9 -10 -11 -13 -15 -16 -17 -17 -17 -18 -19 -20 -20 -20 -21 -21 -21 -18 -18 -23 -22 -15 -15 -16 -16 -16 -16 -16 -16 -17 -17 -18
-3 -4 -4 -4 -5 -6 -6 -7 -7 -8 -9 -9 -9 -11 -12 -14 -16 -16 -16 -16 -16 -18 -19 -20 -20 -20 -21 -21 -21 -16 -17 -18 -23 -15 -16 -16 -16 -17 -17 -17 -17 -17 -18 -18
-4 -4 -5 -4 -5 -6 -7 -7 -7 -8 -8 -9 -10 -12 -12 -13 -15 -16 -16 -16 -17 -18 -19 -19 -20 -21 -22 -22 -21 -21 -21 -20 -16 -16 -16 -17 -17 -17 -17 -17 -17 -18 -18 -18
-4 -4 -4 -5 -6 -6 -7 -7 -7 -8 -8 -9 -11 -11 -12 -14 -16 -16 -16 -16 -17 -18 -19 -20 -21 -21 -23 -23 -22 -20 -21 -23 -16 -16 -17 -17 -17 -17 -18 -18 -18 -18 -18 -19
-5 -5 -5 -6 -6 -6 -7 -7 -7 -7 -9 -11 -11 -12 -13 -15 -16 -16 -16 -16 -15 -13 -19 -20 -21 -22 -23 -24 -25 -19 -23 -20 -18 -17 -17 -18 -18 -18 -18 -18 -19 -19 -19 -19
-6 -5 -5 -4 -5 -6 -6 -6 -6 -9 -10 -10 -11 -11 -14 -16 -16 -16 -16 -14 -17 -18 -19 -20 -21 -22 -22 -23 -23 -20 -22 -19 -17 -17 -18 -18 -18 -18 -18 -19 -19 -19 -19 -20
-5 -5 -4 -4 -5 -6 -6 -7 -9 -10 -10 -10 -10 -13 -15 -16 -16 -16 -16 -12 -14 -18 -19 -18 -19 -23 -21 -25 -18 -20 -17 -17 -17 -18 -18 -18 -18 -18 -19 -19 -19 -20 -20 -20
-5 -5 -4 -5 -5 -6 -7 -9 -10 -10 -10 -9 -11 -14 -16 -16 -16 -15 -14 -17 -15 -19 -17 -15 -17 -23 -23 -23 -17 -17 -17 -17 -18 -18 -18 -18 -19 -19 -19 -20 -20 -20 -21 -21
-6 -6 -5 -5 -6 -8 -9 -9 -10 -10 -9 -12 -14 -15 -16 -16 -15 -13 -13 -13 -16 -18 -17 -15 -21 -22 -21 -18 -17 -17 -17 -17 -18 -18 -18 -19 -19 -19 -19 -20 -21 -21 -22 -22
-5 -6 -6 -7 -9 -9 -9 -9 -9 -9 -13 -14 -15 -16 -16 -13 -12 -13 -14 -16 -17 -18 -16 -18 -20 -20 -20 -17 -17 -17 -18 -18 -18 -19 -19 -19 -20 -20 -20 -21 -22 -22 -22 -23
-6 -7 -8 -9 -9 -8 -8 -8 -9 -12 -13 -14 -16 -16 -16 -15 -16 -15 -16 -16 -18 -18 -16 -16 -19 -19 -17 -17 -17 -18 -18 -18 -19 -20 -21 -21 -21 -21 -22 -22 -22 -23 -23 -23
-7 -8 -8 -8 -8 -8 -9 -10 -11 -12 -13 -14 -14 -15 -16 -17 -17 -17 -17 -17 -16 -17 -16 -16 -16 -17 -17 -17 -18 -18 -19 -20 -22 -24 -24 -25 -25 -24 -24 -24 -24 -24 -24 -24

GFSNGP_850_dewp_174.txt.gz
Dewpoint
4 3 0 0 0 4 5 5 3 1 -1 -3 -4 -3 -3 -5 -4 -2 -2 -2 -2 -0 -1 -2 -3 -3 -3 -4 -6 -9 -10 -9 -8 -8 -7 -7 -7 -8 -8 -8 -8 -8 -8 -8
5 4 1 -0 -0 -0 0 1 1 5 3 -5 -8 -7 -3 -2 -1 -1 -3 -2 -2 0 -0 -1 -2 -4 -4 -5 -7 -9 -9 -9 -9 -8 -8 -9 -9 -9 -9 -9 -9 -9 -10 -9
6 -0 0 4 2 1 0 -0 0 3 0 -2 -2 -4 -4 -2 -3 -3 -3 -3 -2 0 -1 -2 -4 -4 -5 -6 -8 -9 -9 -9 -9 -9 -9 -10 -10 -10 -10 -10 -10 -10 -11 -11
5 3 6 1 -3 -4 -3 -3 -2 -2 -2 -2 -2 -3 -3 -1 -1 -4 -4 -3 -1 -0 -2 -4 -4 -5 -6 -8 -9 -9 -9 -10 -10 -10 -10 -11 -10 -10 -10 -11 -11 -11 -12 -12
5 5 2 -2 -4 -4 -1 -0 -4 -4 -5 -6 -5 -4 -3 -6 -7 -5 -3 -1 -1 -2 -4 -5 -6 -6 -7 -9 -9 -9 -10 -10 -10 -10 -11 -11 -11 -11 -11 -11 -12 -12 -12 -12
3 4 3 -3 -7 -7 -2 1 -2 -4 -4 -3 -4 -0 1 -4 -5 -4 -2 -2 -3 -4 -6 -6 -7 -8 -9 -10 -10 -10 -10 -10 -11 -11 -12 -12 -11 -11 -11 -12 -12 -12 -11 -12
4 4 -1 -7 -9 -8 -0 -1 -3 -2 -2 -3 -0 -1 -4 -4 -3 -2 -3 -4 -5 -6 -6 -7 -8 -9 -10 -10 -10 -11 -11 -11 -12 -12 -13 -13 -12 -12 -12 -12 -11 -12 -12 -12
2 3 2 -5 -6 -4 -3 -5 -3 -2 -3 -1 -2 -3 -3 -2 -3 -5 -5 -6 -7 -7 -8 -9 -10 -10 -10 -10 -11 -11 -11 -12 -12 -14 -14 -12 -12 -11 -12 -12 -11 -12 -13 -13
0 -1 -4 -7 -6 -3 -2 -2 -1 -2 -1 -1 -2 -3 -3 -5 -5 -6 -7 -7 -8 -9 -10 -11 -11 -11 -11 -12 -12 -11 -13 -13 -14 -14 -16 -14 -12 -12 -12 -12 -13 -14 -14 -14
2 1 -2 -3 -3 0 1 0 -2 -2 -0 -2 -3 -4 -5 -6 -7 -7 -8 -8 -9 -10 -11 -12 -12 -12 -12 -13 -12 -16 -22 -24 -23 -22 -18 -16 -12 -12 -12 -13 -13 -16 -15 -15
0 -1 0 -1 -1 0 1 -1 -2 -1 -1 -3 -4 -5 -6 -7 -7 -8 -9 -10 -10 -11 -12 -12 -13 -13 -13 -13 -12 -16 -23 -23 -19 -13 -14 -12 -12 -12 -13 -13 -15 -16 -15 -15
2 0 1 -1 -1 -0 -0 -2 -2 -3 -3 -4 -5 -6 -7 -7 -8 -9 -10 -11 -11 -11 -12 -13 -14 -14 -13 -14 -14 -14 -19 -13 -14 -12 -12 -12 -13 -12 -12 -13 -14 -14 -14 -15
-0 -4 -0 0 2 1 1 -0 -0 -3 -4 -4 -5 -6 -7 -7 -8 -9 -11 -11 -12 -12 -13 -14 -14 -13 -13 -13 -19 -19 -13 -17 -12 -12 -12 -12 -13 -13 -14 -14 -15 -14 -14 -14
-4 -2 1 1 1 1 2 2 1 1 -2 -5 -6 -7 -7 -8 -9 -10 -11 -11 -12 -12 -13 -14 -14 -14 -17 -22 -24 -24 -24 -23 -16 -12 -12 -13 -13 -14 -14 -14 -15 -15 -16 -15
-6 -0 -0 0 -0 1 1 -0 -1 -3 -5 -6 -7 -7 -8 -8 -9 -10 -10 -11 -12 -12 -13 -14 -15 -18 -22 -23 -23 -24 -21 -17 -20 -13 -13 -15 -14 -14 -15 -15 -15 -16 -16 -16
-3 -0 0 0 0 0 0 0 -3 -5 -6 -7 -7 -7 -8 -9 -9 -10 -10 -11 -12 -14 -16 -17 -19 -22 -23 -23 -23 -23 -22 -21 -25 -14 -13 -14 -14 -15 -15 -15 -16 -16 -16 -16
-0 -0 -0 0 0 0 -1 -4 -5 -6 -6 -6 -7 -7 -7 -9 -9 -10 -12 -13 -15 -16 -17 -18 -22 -23 -23 -23 -23 -13 -13 -13 -16 -14 -13 -14 -15 -14 -16 -15 -16 -16 -16 -17
-1 -0 -0 0 -1 -2 -4 -5 -6 -6 -6 -7 -7 -7 -8 -9 -11 -13 -14 -15 -16 -16 -17 -20 -22 -22 -22 -22 -22 -12 -13 -13 -14 -14 -14 -15 -14 -16 -15 -15 -16 -16 -17 -17
-0 -0 -1 -2 -3 -4 -5 -5 -6 -6 -7 -7 -7 -8 -9 -11 -12 -14 -15 -15 -16 -16 -17 -20 -21 -21 -22 -22 -23 -19 -14 -14 -14 -14 -14 -15 -15 -15 -15 -17 -16 -17 -17 -17
-0 -2 -2 -3 -4 -4 -5 -5 -6 -6 -7 -8 -8 -9 -11 -12 -13 -14 -14 -15 -16 -16 -16 -20 -21 -21 -15 -18 -23 -16 -13 -14 -14 -14 -15 -15 -16 -15 -17 -15 -16 -16 -17 -18
-1 -3 -3 -3 -4 -5 -5 -5 -6 -7 -8 -8 -9 -10 -11 -12 -12 -14 -15 -15 -15 -15 -14 -15 -18 -18 -15 -15 -20 -22 -14 -14 -15 -15 -15 -16 -16 -16 -16 -17 -17 -17 -18 -18
-3 -3 -4 -4 -5 -5 -5 -6 -7 -7 -7 -9 -10 -11 -11 -11 -12 -14 -15 -12 -10 -12 -15 -17 -19 -14 -14 -15 -17 -14 -14 -15 -15 -15 -16 -16 -16 -16 -17 -17 -17 -18 -18 -18
-4 -4 -4 -5 -5 -6 -6 -7 -7 -7 -8 -10 -10 -10 -11 -11 -12 -14 -15 -13 -11 -12 -13 -15 -14 -15 -15 -16 -19 -15 -15 -15 -15 -16 -16 -16 -16 -17 -17 -17 -17 -18 -18 -18
-5 -5 -5 -6 -6 -7 -7 -7 -8 -9 -10 -10 -10 -11 -11 -11 -13 -13 -10 -10 -12 -12 -15 -13 -13 -13 -14 -16 -22 -16 -15 -15 -16 -16 -16 -16 -16 -17 -17 -18 -18 -18 -19 -19
-5 -5 -6 -6 -7 -7 -7 -7 -9 -10 -10 -10 -10 -11 -11 -12 -11 -11 -10 -11 -11 -12 -13 -14 -13 -13 -14 -18 -20 -15 -15 -15 -16 -16 -16 -17 -17 -18 -18 -19 -19 -20 -20 -21
-5 -5 -6 -6 -6 -6 -7 -9 -9 -10 -10 -9 -10 -11 -13 -10 -10 -10 -11 -11 -12 -13 -13 -14 -14 -15 -17 -20 -16 -15 -16 -16 -16 -16 -17 -17 -19 -22 -21 -21 -21 -22 -23 -24
-5 -6 -6 -5 -6 -7 -8 -8 -8 -8 -8 -8 -9 -11 -11 -10 -11 -11 -12 -12 -13 -14 -15 -13 -14 -15 -16 -16 -15 -15 -16 -16 -16 -17 -18 -21 -23 -23 -24 -23 -24 -25 -26 -26